Wetterdaten: Sonntag, 05.01.2014
Datum Zeit Temp. Aussen +5cm Feuchte Auss Luftdruck Regen Sonnenschein Regendauer UV Solar Windben
05.01.2014 00:00 5,6 C 3,9 C 95 % 995,8 hPa 0,0 l/m 0 min 0 min 0,0 UV-I 0 W/m 2,6 km/h (1 Bft)
05.01.2014 00:02 5,6 C 3,9 C 95 % 995,9 hPa 0,0 l/m 0 min 0 min 0,0 UV-I 0 W/m 0,0 km/h (0 Bft)
05.01.2014 00:04 5,6 C 3,9 C 95 % 995,9 hPa 0,0 l/m 0 min 0 min 0,0 UV-I 0 W/m 7,7 km/h (2 Bft)
05.01.2014 00:06 5,6 C 3,9 C 95 % 996,0 hPa 0,0 l/m 0 min 0 min 0,0 UV-I 0 W/m 2,6 km/h (1 Bft)
05.01.2014 00:08 5,6 C 3,9 C 95 % 996,0 hPa 0,0 l/m 0 min 0 min 0,0 UV-I 0 W/m 7,7 km/h (2 Bft)
05.01.2014 00:10 5,6 C 3,9 C 95 % 996,0 hPa 0,0 l/m 0 min 0 min 0,0 UV-I 0 W/m 7,7 km/h (2 Bft)
05.01.2014 00:12 5,6 C 3,9 C 95 % 996,1 hPa 0,0 l/m 0 min 0 min 0,0 UV-I 0 W/m 0,0 km/h (0 Bft)
05.01.2014 00:14 5,6 C 3,9 C 95 % 996,1 hPa 0,0 l/m 0 min 0 min 0,0 UV-I 0 W/m 0,0 km/h (0 Bft)
05.01.2014 00:16 5,6 C 3,9 C 95 % 996,2 hPa 0,0 l/m 0 min 0 min 0,0 UV-I 0 W/m 2,6 km/h (1 Bft)
05.01.2014 00:18 5,5 C 3,9 C 95 % 996,1 hPa 0,0 l/m 0 min 0 min 0,0 UV-I 0 W/m 0,0 km/h (0 Bft)
05.01.2014 00:20 5,5 C 3,9 C 95 % 996,3 hPa 0,0 l/m 0 min 0 min 0,0 UV-I 0 W/m 5,1 km/h (1 Bft)
05.01.2014 00:22 5,5 C 3,9 C 95 % 996,3 hPa 0,0 l/m 0 min 0 min 0,0 UV-I 0 W/m 2,6 km/h (1 Bft)
05.01.2014 00:24 5,5 C 4,4 C 95 % 996,3 hPa 0,0 l/m 0 min 0 min 0,0 UV-I 0 W/m 0,0 km/h (0 Bft)
05.01.2014 00:26 5,5 C 4,4 C 95 % 996,3 hPa 0,0 l/m 0 min 0 min 0,0 UV-I 0 W/m 0,0 km/h (0 Bft)
05.01.2014 00:28 5,5 C 4,4 C 95 % 996,2 hPa 0,0 l/m 0 min 0 min 0,0 UV-I 0 W/m 0,0 km/h (0 Bft)
05.01.2014 00:30 5,5 C 4,4 C 95 % 996,2 hPa 0,0 l/m 0 min 0 min 0,0 UV-I 0 W/m 0,0 km/h (0 Bft)
05.01.2014 00:32 5,5 C 4,4 C 95 % 996,1 hPa 0,0 l/m 0 min 0 min 0,0 UV-I 0 W/m 0,0 km/h (0 Bft)
05.01.2014 00:34 5,6 C 4,4 C 95 % 996,2 hPa 0,0 l/m 0 min 0 min 0,0 UV-I 0 W/m 7,7 km/h (2 Bft)
05.01.2014 00:36 5,6 C 4,4 C 96 % 996,2 hPa 0,0 l/m 0 min 0 min 0,0 UV-I 0 W/m 5,1 km/h (1 Bft)
05.01.2014 00:38 5,6 C 4,4 C 96 % 996,3 hPa 0,0 l/m 0 min 0 min 0,0 UV-I 0 W/m 2,6 km/h (1 Bft)
05.01.2014 00:40 5,6 C 4,4 C 96 % 996,3 hPa 0,0 l/m 0 min 0 min 0,0 UV-I 0 W/m 7,7 km/h (2 Bft)
05.01.2014 00:42 5,6 C 4,4 C 96 % 996,3 hPa 0,0 l/m 0 min 0 min 0,0 UV-I 0 W/m 0,0 km/h (0 Bft)
05.01.2014 00:44 5,6 C 4,4 C 96 % 996,3 hPa 0,0 l/m 0 min 0 min 0,0 UV-I 0 W/m 5,1 km/h (1 Bft)
05.01.2014 00:46 5,6 C 4,4 C 96 % 996,3 hPa 0,0 l/m 0 min 0 min 0,0 UV-I 0 W/m 7,7 km/h (2 Bft)
05.01.2014 00:48 5,7 C 4,4 C 96 % 996,3 hPa 0,0 l/m 0 min 0 min 0,0 UV-I 0 W/m 5,1 km/h (1 Bft)
05.01.2014 00:50 5,7 C 4,4 C 96 % 996,3 hPa 0,0 l/m 0 min 0 min 0,0 UV-I 0 W/m 7,7 km/h (2 Bft)
05.01.2014 00:52 5,7 C 4,4 C 96 % 996,3 hPa 0,0 l/m 0 min 0 min 0,0 UV-I 0 W/m 0,0 km/h (0 Bft)
05.01.2014 00:54 5,7 C 4,4 C 96 % 996,5 hPa 0,0 l/m 0 min 0 min 0,0 UV-I 0 W/m 0,0 km/h (0 Bft)
05.01.2014 00:56 5,7 C 4,4 C 96 % 996,4 hPa 0,0 l/m 0 min 0 min 0,0 UV-I 0 W/m 10,3 km/h (2 Bft)
05.01.2014 00:58 5,7 C 4,4 C 96 % 996,5 hPa 0,0 l/m 0 min 0 min 0,0 UV-I 0 W/m 5,1 km/h (1 Bft)
05.01.2014 01:00 5,7 C 4,4 C 96 % 996,5 hPa 0,0 l/m 0 min 0 min 0,0 UV-I 0 W/m 7,7 km/h (2 Bft)
05.01.2014 01:02 5,8 C 4,4 C 96 % 996,6 hPa 0,0 l/m 0 min 0 min 0,0 UV-I 0 W/m 5,1 km/h (1 Bft)
05.01.2014 01:04 5,8 C 4,4 C 96 % 996,7 hPa 0,0 l/m 0 min 0 min 0,0 UV-I 0 W/m 0,0 km/h (0 Bft)
05.01.2014 01:06 5,8 C 5,0 C 96 % 996,6 hPa 0,0 l/m 0 min 0 min 0,0 UV-I 0 W/m 0,0 km/h (0 Bft)
05.01.2014 01:08 5,8 C 5,0 C 96 % 996,6 hPa 0,0 l/m 0 min 0 min 0,0 UV-I 0 W/m 0,0 km/h (0 Bft)
05.01.2014 01:10 5,8 C 5,0 C 96 % 996,7 hPa 0,0 l/m 0 min 0 min 0,0 UV-I 0 W/m 0,0 km/h (0 Bft)
05.01.2014 01:12 5,9 C 5,0 C 96 % 996,7 hPa 0,0 l/m 0 min 0 min 0,0 UV-I 0 W/m 5,1 km/h (1 Bft)
05.01.2014 01:14 5,9 C 5,0 C 96 % 996,8 hPa 0,0 l/m 0 min 0 min 0,0 UV-I 0 W/m 0,0 km/h (0 Bft)
05.01.2014 01:16 5,9 C 5,0 C 96 % 996,7 hPa 0,0 l/m 0 min 0 min 0,0 UV-I 0 W/m 2,6 km/h (1 Bft)
05.01.2014 01:18 5,9 C 5,0 C 96 % 996,6 hPa 0,0 l/m 0 min 0 min 0,0 UV-I 0 W/m 0,0 km/h (0 Bft)
05.01.2014 01:20 6,0 C 5,0 C 96 % 996,6 hPa 0,0 l/m 0 min 0 min 0,0 UV-I 0 W/m 5,1 km/h (1 Bft)
05.01.2014 01:22 6,1 C 5,0 C 96 % 996,6 hPa 0,0 l/m 0 min 0 min 0,0 UV-I 0 W/m 0,0 km/h (0 Bft)
05.01.2014 01:24 6,1 C 5,0 C 96 % 996,6 hPa 0,0 l/m 0 min 0 min 0,0 UV-I 0 W/m 0,0 km/h (0 Bft)
05.01.2014 01:26 6,1 C 5,0 C 96 % 996,6 hPa 0,0 l/m 0 min 0 min 0,0 UV-I 0 W/m 0,0 km/h (0 Bft)
05.01.2014 01:28 6,1 C 5,0 C 96 % 996,7 hPa 0,0 l/m 0 min 2 min 0,0 UV-I 0 W/m 0,0 km/h (0 Bft)
05.01.2014 01:30 6,2 C 5,0 C 96 % 996,6 hPa 0,0 l/m 0 min 2 min 0,0 UV-I 0 W/m 0,0 km/h (0 Bft)
05.01.2014 01:32 6,2 C 5,0 C 96 % 996,7 hPa 0,0 l/m 0 min 0 min 0,0 UV-I 0 W/m 0,0 km/h (0 Bft)
05.01.2014 01:34 6,2 C 5,0 C 96 % 996,8 hPa 0,0 l/m 0 min 2 min 0,0 UV-I 0 W/m 0,0 km/h (0 Bft)
05.01.2014 01:36 6,3 C 5,0 C 96 % 996,7 hPa 0,0 l/m 0 min 2 min 0,0 UV-I 0 W/m 2,6 km/h (1 Bft)
05.01.2014 01:38 6,3 C 5,0 C 96 % 996,6 hPa 0,0 l/m 0 min 0 min 0,0 UV-I 0 W/m 2,6 km/h (1 Bft)
05.01.2014 01:40 6,3 C 5,0 C 96 % 996,8 hPa 0,0 l/m 0 min 0 min 0,0 UV-I 0 W/m 0,0 km/h (0 Bft)
05.01.2014 01:42 6,4 C 5,0 C 96 % 996,8 hPa 0,0 l/m 0 min 2 min 0,0 UV-I 0 W/m 0,0 km/h (0 Bft)
05.01.2014 01:44 6,4 C 5,0 C 96 % 996,8 hPa 0,0 l/m 0 min 2 min 0,0 UV-I 0 W/m 0,0 km/h (0 Bft)
05.01.2014 01:46 6,4 C 5,0 C 96 % 996,9 hPa 0,0 l/m 0 min 0 min 0,0 UV-I 0 W/m 2,6 km/h (1 Bft)
05.01.2014 01:48 6,4 C 5,0 C 96 % 996,9 hPa 0,0 l/m 0 min 0 min 0,0 UV-I 0 W/m 0,0 km/h (0 Bft)
05.01.2014 01:50 6,4 C 5,0 C 96 % 997,0 hPa 0,0 l/m 0 min 0 min 0,0 UV-I 0 W/m 5,1 km/h (1 Bft)
05.01.2014 01:52 6,5 C 5,6 C 96 % 997,0 hPa 0,2 l/m 0 min 0 min 0,0 UV-I 0 W/m 5,1 km/h (1 Bft)
05.01.2014 01:54 6,6 C 5,6 C 96 % 997,0 hPa 0,0 l/m 0 min 0 min 0,0 UV-I 0 W/m 10,3 km/h (2 Bft)
05.01.2014 01:56 6,7 C 6,1 C 96 % 997,0 hPa 0,0 l/m 0 min 0 min 0,0 UV-I 0 W/m 7,7 km/h (2 Bft)
05.01.2014 01:58 6,8 C 6,1 C 96 % 997,0 hPa 0,0 l/m 0 min 0 min 0,0 UV-I 0 W/m 7,7 km/h (2 Bft)
05.01.2014 02:00 6,8 C 6,1 C 96 % 997,1 hPa 0,0 l/m 0 min 0 min 0,0 UV-I 0 W/m 0,0 km/h (0 Bft)
05.01.2014 02:02 6,9 C 6,1 C 96 % 997,1 hPa 0,0 l/m 0 min 0 min 0,0 UV-I 0 W/m 2,6 km/h (1 Bft)
05.01.2014 02:04 6,9 C 6,1 C 96 % 997,1 hPa 0,0 l/m 0 min 0 min 0,0 UV-I 0 W/m 5,1 km/h (1 Bft)
05.01.2014 02:06 7,0 C 6,1 C 96 % 997,1 hPa 0,0 l/m 0 min 2 min 0,0 UV-I 0 W/m 0,0 km/h (0 Bft)
05.01.2014 02:08 7,1 C 6,1 C 96 % 997,1 hPa 0,0 l/m 0 min 2 min 0,0 UV-I 0 W/m 5,1 km/h (1 Bft)
05.01.2014 02:10 7,1 C 6,1 C 96 % 997,1 hPa 0,0 l/m 0 min 2 min 0,0 UV-I 0 W/m 2,6 km/h (1 Bft)
05.01.2014 02:12 7,2 C 6,1 C 96 % 997,2 hPa 0,0 l/m 0 min 2 min 0,0 UV-I 0 W/m 5,1 km/h (1 Bft)
05.01.2014 02:14 7,2 C 6,1 C 96 % 997,2 hPa 0,0 l/m 0 min 2 min 0,0 UV-I 0 W/m 0,0 km/h (0 Bft)
05.01.2014 02:16 7,3 C 6,1 C 96 % 997,3 hPa 0,0 l/m 0 min 2 min 0,0 UV-I 0 W/m 0,0 km/h (0 Bft)
05.01.2014 02:18 7,3 C 6,1 C 96 % 997,3 hPa 0,0 l/m 0 min 2 min 0,0 UV-I 0 W/m 7,7 km/h (2 Bft)
05.01.2014 02:20 7,3 C 6,1 C 96 % 997,4 hPa 0,0 l/m 0 min 2 min 0,0 UV-I 0 W/m 18,0 km/h (3 Bft)
05.01.2014 02:22 7,4 C 6,1 C 96 % 997,4 hPa 0,0 l/m 0 min 2 min 0,0 UV-I 0 W/m 5,1 km/h (1 Bft)
05.01.2014 02:24 7,4 C 6,1 C 96 % 997,4 hPa 0,0 l/m 0 min 2 min 0,0 UV-I 0 W/m 10,3 km/h (2 Bft)
05.01.2014 02:26 7,5 C 6,1 C 96 % 997,4 hPa 0,0 l/m 0 min 2 min 0,0 UV-I 0 W/m 10,3 km/h (2 Bft)
05.01.2014 02:28 7,5 C 6,1 C 96 % 997,5 hPa 0,0 l/m 0 min 2 min 0,0 UV-I 0 W/m 7,7 km/h (2 Bft)
05.01.2014 02:30 7,6 C 6,1 C 95 % 997,5 hPa 0,0 l/m 0 min 2 min 0,0 UV-I 0 W/m 7,7 km/h (2 Bft)
05.01.2014 02:32 7,6 C 5,6 C 95 % 997,5 hPa 0,0 l/m 0 min 2 min 0,0 UV-I 0 W/m 2,6 km/h (1 Bft)
05.01.2014 02:34 7,6 C 5,6 C 95 % 997,5 hPa 0,0 l/m 0 min 2 min 0,0 UV-I 0 W/m 7,7 km/h (2 Bft)
05.01.2014 02:36 7,6 C 5,6 C 95 % 997,6 hPa 0,2 l/m 0 min 2 min 0,0 UV-I 0 W/m 7,7 km/h (2 Bft)
05.01.2014 02:38 7,6 C 5,6 C 95 % 997,6 hPa 0,0 l/m 0 min 2 min 0,0 UV-I 0 W/m 7,7 km/h (2 Bft)
05.01.2014 02:40 7,7 C 5,6 C 95 % 997,7 hPa 0,0 l/m 0 min 2 min 0,0 UV-I 0 W/m 0,0 km/h (0 Bft)
05.01.2014 02:42 7,7 C 5,6 C 95 % 997,7 hPa 0,0 l/m 0 min 2 min 0,0 UV-I 0 W/m 5,1 km/h (1 Bft)
05.01.2014 02:44 7,7 C 5,6 C 95 % 997,7 hPa 0,0 l/m 0 min 2 min 0,0 UV-I 0 W/m 15,4 km/h (3 Bft)
05.01.2014 02:46 7,7 C 5,6 C 95 % 997,7 hPa 0,0 l/m 0 min 2 min 0,0 UV-I 0 W/m 12,9 km/h (3 Bft)
05.01.2014 02:48 7,7 C 5,6 C 95 % 997,7 hPa 0,0 l/m 0 min 2 min 0,0 UV-I 0 W/m 0,0 km/h (0 Bft)
05.01.2014 02:50 7,7 C 5,6 C 95 % 997,6 hPa 0,0 l/m 0 min 2 min 0,0 UV-I 0 W/m 5,1 km/h (1 Bft)
05.01.2014 02:52 7,6 C 5,6 C 95 % 997,7 hPa 0,0 l/m 0 min 2 min 0,0 UV-I 0 W/m 7,7 km/h (2 Bft)
05.01.2014 02:54 7,7 C 5,6 C 95 % 997,8 hPa 0,0 l/m 0 min 2 min 0,0 UV-I 0 W/m 0,0 km/h (0 Bft)
05.01.2014 02:56 7,6 C 5,6 C 95 % 997,8 hPa 0,0 l/m 0 min 2 min 0,0 UV-I 0 W/m 0,0 km/h (0 Bft)
05.01.2014 02:58 7,6 C 5,6 C 95 % 997,9 hPa 0,0 l/m 0 min 2 min 0,0 UV-I 0 W/m 10,3 km/h (2 Bft)
05.01.2014 03:00 7,6 C 5,6 C 95 % 997,8 hPa 0,0 l/m 0 min 2 min 0,0 UV-I 0 W/m 2,6 km/h (1 Bft)
05.01.2014 03:02 7,6 C 5,6 C 95 % 997,9 hPa 0,0 l/m 0 min 2 min 0,0 UV-I 0 W/m 0,0 km/h (0 Bft)
05.01.2014 03:04 7,6 C 5,6 C 95 % 997,9 hPa 0,0 l/m 0 min 2 min 0,0 UV-I 0 W/m 0,0 km/h (0 Bft)
05.01.2014 03:06 7,6 C 5,6 C 95 % 997,9 hPa 0,0 l/m 0 min 2 min 0,0 UV-I 0 W/m 2,6 km/h (1 Bft)
05.01.2014 03:08 7,6 C 5,6 C 95 % 997,9 hPa 0,0 l/m 0 min 2 min 0,0 UV-I 0 W/m 5,1 km/h (1 Bft)
05.01.2014 03:10 7,6 C 5,6 C 95 % 997,9 hPa 0,0 l/m 0 min 2 min 0,0 UV-I 0 W/m 2,6 km/h (1 Bft)
05.01.2014 03:12 7,6 C 5,6 C 95 % 998,0 hPa 0,0 l/m 0 min 2 min 0,0 UV-I 0 W/m 2,6 km/h (1 Bft)
05.01.2014 03:14 7,6 C 5,6 C 95 % 998,0 hPa 0,0 l/m 0 min 2 min 0,0 UV-I 0 W/m 0,0 km/h (0 Bft)
05.01.2014 03:16 7,6 C 5,6 C 95 % 998,0 hPa 0,0 l/m 0 min 2 min 0,0 UV-I 0 W/m 5,1 km/h (1 Bft)
05.01.2014 03:18 7,6 C 5,6 C 95 % 998,0 hPa 0,0 l/m 0 min 2 min 0,0 UV-I 0 W/m 2,6 km/h (1 Bft)
05.01.2014 03:20 7,6 C 5,6 C 95 % 998,0 hPa 0,0 l/m 0 min 0 min 0,0 UV-I 0 W/m 10,3 km/h (2 Bft)
05.01.2014 03:22 7,5 C 5,6 C 95 % 998,1 hPa 0,0 l/m 0 min 0 min 0,0 UV-I 0 W/m 7,7 km/h (2 Bft)
05.01.2014 03:24 7,5 C 5,6 C 95 % 998,1 hPa 0,0 l/m 0 min 2 min 0,0 UV-I 0 W/m 2,6 km/h (1 Bft)
05.01.2014 03:26 7,5 C 5,6 C 95 % 998,2 hPa 0,0 l/m 0 min 0 min 0,0 UV-I 0 W/m 2,6 km/h (1 Bft)
05.01.2014 03:28 7,5 C 5,6 C 95 % 998,2 hPa 0,0 l/m 0 min 2 min 0,0 UV-I 0 W/m 2,6 km/h (1 Bft)
05.01.2014 03:30 7,5 C 5,6 C 95 % 998,2 hPa 0,0 l/m 0 min 2 min 0,0 UV-I 0 W/m 7,7 km/h (2 Bft)
05.01.2014 03:32 7,4 C 5,6 C 95 % 998,3 hPa 0,0 l/m 0 min 2 min 0,0 UV-I 0 W/m 10,3 km/h (2 Bft)
05.01.2014 03:34 7,5 C 5,6 C 95 % 998,3 hPa 0,0 l/m 0 min 2 min 0,0 UV-I 0 W/m 10,3 km/h (2 Bft)
05.01.2014 03:36 7,4 C 5,6 C 95 % 998,3 hPa 0,0 l/m 0 min 2 min 0,0 UV-I 0 W/m 0,0 km/h (0 Bft)
05.01.2014 03:38 7,4 C 5,6 C 95 % 998,3 hPa 0,0 l/m 0 min 2 min 0,0 UV-I 0 W/m 10,3 km/h (2 Bft)
05.01.2014 03:40 7,4 C 5,6 C 95 % 998,3 hPa 0,0 l/m 0 min 2 min 0,0 UV-I 0 W/m 0,0 km/h (0 Bft)
05.01.2014 03:42 7,4 C 5,6 C 95 % 998,4 hPa 0,0 l/m 0 min 2 min 0,0 UV-I 0 W/m 0,0 km/h (0 Bft)
05.01.2014 03:44 7,4 C 5,6 C 95 % 998,3 hPa 0,0 l/m 0 min 2 min 0,0 UV-I 0 W/m 5,1 km/h (1 Bft)
05.01.2014 03:46 7,4 C 5,6 C 95 % 998,3 hPa 0,2 l/m 0 min 0 min 0,0 UV-I 0 W/m 7,7 km/h (2 Bft)
05.01.2014 03:48 7,4 C 5,6 C 95 % 998,3 hPa 0,0 l/m 0 min 0 min 0,0 UV-I 0 W/m 12,9 km/h (3 Bft)
05.01.2014 03:50 7,4 C 5,6 C 95 % 998,4 hPa 0,0 l/m 0 min 0 min 0,0 UV-I 0 W/m 0,0 km/h (0 Bft)
05.01.2014 03:52 7,4 C 5,6 C 95 % 998,4 hPa 0,0 l/m 0 min 2 min 0,0 UV-I 0 W/m 7,7 km/h (2 Bft)
05.01.2014 03:54 7,4 C 5,6 C 95 % 998,5 hPa 0,0 l/m 0 min 2 min 0,0 UV-I 0 W/m 5,1 km/h (1 Bft)
05.01.2014 03:56 7,4 C 5,6 C 95 % 998,5 hPa 0,0 l/m 0 min 0 min 0,0 UV-I 0 W/m 5,1 km/h (1 Bft)
05.01.2014 03:58 7,4 C 5,6 C 95 % 998,5 hPa 0,0 l/m 0 min 0 min 0,0 UV-I 0 W/m 10,3 km/h (2 Bft)
05.01.2014 04:00 7,4 C 5,6 C 95 % 998,5 hPa 0,0 l/m 0 min 2 min 0,0 UV-I 0 W/m 0,0 km/h (0 Bft)
05.01.2014 04:02 7,4 C 5,6 C 95 % 998,5 hPa 0,0 l/m 0 min 2 min 0,0 UV-I 0 W/m 2,6 km/h (1 Bft)
05.01.2014 04:04 7,4 C 5,6 C 95 % 998,5 hPa 0,0 l/m 0 min 2 min 0,0 UV-I 0 W/m 0,0 km/h (0 Bft)
05.01.2014 04:06 7,4 C 5,6 C 95 % 998,6 hPa 0,0 l/m 0 min 2 min 0,0 UV-I 0 W/m 2,6 km/h (1 Bft)
05.01.2014 04:08 7,4 C 5,6 C 95 % 998,7 hPa 0,0 l/m 0 min 2 min 0,0 UV-I 0 W/m 2,6 km/h (1 Bft)
05.01.2014 04:10 7,4 C 5,6 C 95 % 998,8 hPa 0,0 l/m 0 min 2 min 0,0 UV-I 0 W/m 7,7 km/h (2 Bft)
05.01.2014 04:12 7,4 C 5,6 C 95 % 998,8 hPa 0,0 l/m 0 min 2 min 0,0 UV-I 0 W/m 7,7 km/h (2 Bft)
05.01.2014 04:14 7,4 C 5,6 C 95 % 998,8 hPa 0,0 l/m 0 min 2 min 0,0 UV-I 0 W/m 7,7 km/h (2 Bft)
05.01.2014 04:16 7,4 C 5,6 C 95 % 999,0 hPa 0,0 l/m 0 min 2 min 0,0 UV-I 0 W/m 10,3 km/h (2 Bft)
05.01.2014 04:18 7,4 C 5,6 C 95 % 999,1 hPa 0,0 l/m 0 min 2 min 0,0 UV-I 0 W/m 7,7 km/h (2 Bft)
05.01.2014 04:20 7,4 C 5,6 C 95 % 999,1 hPa 0,0 l/m 0 min 2 min 0,0 UV-I 0 W/m 5,1 km/h (1 Bft)
05.01.2014 04:22 7,4 C 5,6 C 95 % 999,2 hPa 0,0 l/m 0 min 2 min 0,0 UV-I 0 W/m 10,3 km/h (2 Bft)
05.01.2014 04:24 7,3 C 5,6 C 95 % 999,3 hPa 0,0 l/m 0 min 2 min 0,0 UV-I 0 W/m 7,7 km/h (2 Bft)
05.01.2014 04:26 7,4 C 5,6 C 96 % 999,3 hPa 0,2 l/m 0 min 2 min 0,0 UV-I 0 W/m 20,6 km/h (4 Bft)
05.01.2014 04:28 7,3 C 5,6 C 96 % 999,5 hPa 0,0 l/m 0 min 2 min 0,0 UV-I 0 W/m 20,6 km/h (4 Bft)
05.01.2014 04:30 7,3 C 5,6 C 96 % 999,5 hPa 0,0 l/m 0 min 2 min 0,0 UV-I 0 W/m 10,3 km/h (2 Bft)
05.01.2014 04:32 7,3 C 5,6 C 96 % 999,4 hPa 0,0 l/m 0 min 2 min 0,0 UV-I 0 W/m 15,4 km/h (3 Bft)
05.01.2014 04:34 7,3 C 5,6 C 96 % 999,5 hPa 0,0 l/m 0 min 2 min 0,0 UV-I 0 W/m 12,9 km/h (3 Bft)
05.01.2014 04:36 7,3 C 5,6 C 96 % 999,5 hPa 0,0 l/m 0 min 2 min 0,0 UV-I 0 W/m 18,0 km/h (3 Bft)
05.01.2014 04:38 7,2 C 5,6 C 95 % 999,6 hPa 0,0 l/m 0 min 0 min 0,0 UV-I 0 W/m 25,7 km/h (4 Bft)
05.01.2014 04:40 7,2 C 5,6 C 95 % 999,6 hPa 0,0 l/m 0 min 2 min 0,0 UV-I 0 W/m 12,9 km/h (3 Bft)
05.01.2014 04:42 7,2 C 5,6 C 95 % 999,7 hPa 0,0 l/m 0 min 2 min 0,0 UV-I 0 W/m 7,7 km/h (2 Bft)
05.01.2014 04:44 7,2 C 5,6 C 95 % 999,7 hPa 0,0 l/m 0 min 2 min 0,0 UV-I 0 W/m 5,1 km/h (1 Bft)
05.01.2014 04:46 7,2 C 5,6 C 95 % 999,7 hPa 0,0 l/m 0 min 0 min 0,0 UV-I 0 W/m 12,9 km/h (3 Bft)
05.01.2014 04:48 7,1 C 5,6 C 95 % 999,8 hPa 0,0 l/m 0 min 0 min 0,0 UV-I 0 W/m 10,3 km/h (2 Bft)
05.01.2014 04:50 7,1 C 5,6 C 95 % 999,8 hPa 0,0 l/m 0 min 0 min 0,0 UV-I 0 W/m 5,1 km/h (1 Bft)
05.01.2014 04:52 7,1 C 5,6 C 95 % 999,9 hPa 0,0 l/m 0 min 0 min 0,0 UV-I 0 W/m 12,9 km/h (3 Bft)
05.01.2014 04:54 7,1 C 5,6 C 95 % 999,8 hPa 0,0 l/m 0 min 0 min 0,0 UV-I 0 W/m 15,4 km/h (3 Bft)
05.01.2014 04:56 7,1 C 5,6 C 95 % 999,9 hPa 0,0 l/m 0 min 0 min 0,0 UV-I 0 W/m 12,9 km/h (3 Bft)
05.01.2014 04:58 7,1 C 5,6 C 95 % 999,9 hPa 0,0 l/m 0 min 0 min 0,0 UV-I 0 W/m 12,9 km/h (3 Bft)
05.01.2014 05:00 7,0 C 5,6 C 95 % 999,9 hPa 0,0 l/m 0 min 0 min 0,0 UV-I 0 W/m 10,3 km/h (2 Bft)
05.01.2014 05:02 7,0 C 5,6 C 95 % 1000,0 hPa 0,0 l/m 0 min 0 min 0,0 UV-I 0 W/m 12,9 km/h (3 Bft)
05.01.2014 05:04 7,0 C 5,6 C 95 % 1000,1 hPa 0,0 l/m 0 min 0 min 0,0 UV-I 0 W/m 20,6 km/h (4 Bft)
05.01.2014 05:06 7,0 C 5,6 C 95 % 1000,1 hPa 0,0 l/m 0 min 0 min 0,0 UV-I 0 W/m 12,9 km/h (3 Bft)
05.01.2014 05:08 6,9 C 5,6 C 95 % 1000,1 hPa 0,0 l/m 0 min 0 min 0,0 UV-I 0 W/m 10,3 km/h (2 Bft)
05.01.2014 05:10 6,9 C 5,6 C 95 % 1000,2 hPa 0,0 l/m 0 min 0 min 0,0 UV-I 0 W/m 23,2 km/h (4 Bft)
05.01.2014 05:12 6,9 C 5,0 C 95 % 1000,3 hPa 0,0 l/m 0 min 0 min 0,0 UV-I 0 W/m 15,4 km/h (3 Bft)
05.01.2014 05:14 6,9 C 5,0 C 95 % 1000,5 hPa 0,0 l/m 0 min 0 min 0,0 UV-I 0 W/m 7,7 km/h (2 Bft)
05.01.2014 05:16 6,9 C 5,0 C 95 % 1000,4 hPa 0,0 l/m 0 min 0 min 0,0 UV-I 0 W/m 5,1 km/h (1 Bft)
05.01.2014 05:18 6,9 C 5,0 C 95 % 1000,5 hPa 0,0 l/m 0 min 0 min 0,0 UV-I 0 W/m 12,9 km/h (3 Bft)
05.01.2014 05:20 6,9 C 5,0 C 95 % 1000,5 hPa 0,0 l/m 0 min 0 min 0,0 UV-I 0 W/m 5,1 km/h (1 Bft)
05.01.2014 05:22 6,9 C 5,0 C 95 % 1000,5 hPa 0,0 l/m 0 min 0 min 0,0 UV-I 0 W/m 10,3 km/h (2 Bft)
05.01.2014 05:24 6,8 C 5,0 C 95 % 1000,6 hPa 0,0 l/m 0 min 0 min 0,0 UV-I 0 W/m 10,3 km/h (2 Bft)
05.01.2014 05:26 6,8 C 5,0 C 95 % 1000,6 hPa 0,0 l/m 0 min 0 min 0,0 UV-I 0 W/m 7,7 km/h (2 Bft)
05.01.2014 05:28 6,8 C 5,0 C 95 % 1000,7 hPa 0,0 l/m 0 min 0 min 0,0 UV-I 0 W/m 12,9 km/h (3 Bft)
05.01.2014 05:30 6,8 C 5,0 C 95 % 1000,7 hPa 0,0 l/m 0 min 0 min 0,0 UV-I 0 W/m 18,0 km/h (3 Bft)
05.01.2014 05:32 6,8 C 5,0 C 95 % 1000,8 hPa 0,0 l/m 0 min 0 min 0,0 UV-I 0 W/m 18,0 km/h (3 Bft)
05.01.2014 05:34 6,8 C 5,0 C 95 % 1000,8 hPa 0,0 l/m 0 min 0 min 0,0 UV-I 0 W/m 15,4 km/h (3 Bft)
05.01.2014 05:36 6,7 C 5,0 C 95 % 1000,9 hPa 0,0 l/m 0 min 0 min 0,0 UV-I 0 W/m 12,9 km/h (3 Bft)
05.01.2014 05:38 6,7 C 5,0 C 95 % 1000,8 hPa 0,0 l/m 0 min 0 min 0,0 UV-I 0 W/m 7,7 km/h (2 Bft)
05.01.2014 05:40 6,7 C 5,0 C 95 % 1000,9 hPa 0,0 l/m 0 min 0 min 0,0 UV-I 0 W/m 10,3 km/h (2 Bft)
05.01.2014 05:42 6,7 C 5,0 C 95 % 1000,9 hPa 0,0 l/m 0 min 0 min 0,0 UV-I 0 W/m 10,3 km/h (2 Bft)
05.01.2014 05:44 6,6 C 5,0 C 95 % 1000,9 hPa 0,0 l/m 0 min 0 min 0,0 UV-I 0 W/m 10,3 km/h (2 Bft)
05.01.2014 05:46 6,6 C 5,0 C 95 % 1000,9 hPa 0,0 l/m 0 min 0 min 0,0 UV-I 0 W/m 10,3 km/h (2 Bft)
05.01.2014 05:48 6,6 C 5,0 C 95 % 1001,0 hPa 0,0 l/m 0 min 0 min 0,0 UV-I 0 W/m 10,3 km/h (2 Bft)
05.01.2014 05:50 6,6 C 5,0 C 95 % 1001,0 hPa 0,0 l/m 0 min 0 min 0,0 UV-I 0 W/m 10,3 km/h (2 Bft)
05.01.2014 05:52 6,5 C 5,0 C 95 % 1001,1 hPa 0,0 l/m 0 min 0 min 0,0 UV-I 0 W/m 7,7 km/h (2 Bft)
05.01.2014 05:54 6,5 C 5,0 C 95 % 1001,1 hPa 0,0 l/m 0 min 0 min 0,0 UV-I 0 W/m 7,7 km/h (2 Bft)
05.01.2014 05:56 6,5 C 5,0 C 95 % 1001,2 hPa 0,0 l/m 0 min 0 min 0,0 UV-I 0 W/m 15,4 km/h (3 Bft)
05.01.2014 05:58 6,4 C 5,0 C 95 % 1001,3 hPa 0,0 l/m 0 min 0 min 0,0 UV-I 0 W/m 12,9 km/h (3 Bft)
05.01.2014 06:00 6,4 C 4,4 C 95 % 1001,3 hPa 0,0 l/m 0 min 0 min 0,0 UV-I 0 W/m 0,0 km/h (0 Bft)
05.01.2014 06:02 6,4 C 4,4 C 95 % 1001,3 hPa 0,0 l/m 0 min 0 min 0,0 UV-I 0 W/m 0,0 km/h (0 Bft)
05.01.2014 06:04 6,4 C 4,4 C 95 % 1001,5 hPa 0,0 l/m 0 min 0 min 0,0 UV-I 0 W/m 0,0 km/h (0 Bft)
05.01.2014 06:06 6,4 C 4,4 C 95 % 1001,5 hPa 0,0 l/m 0 min 0 min 0,0 UV-I 0 W/m 15,4 km/h (3 Bft)
05.01.2014 06:08 6,4 C 4,4 C 95 % 1001,5 hPa 0,0 l/m 0 min 0 min 0,0 UV-I 0 W/m 0,0 km/h (0 Bft)
05.01.2014 06:10 6,4 C 4,4 C 95 % 1001,6 hPa 0,0 l/m 0 min 0 min 0,0 UV-I 0 W/m 7,7 km/h (2 Bft)
05.01.2014 06:12 6,3 C 4,4 C 94 % 1001,6 hPa 0,0 l/m 0 min 0 min 0,0 UV-I 0 W/m 7,7 km/h (2 Bft)
05.01.2014 06:14 6,3 C 4,4 C 94 % 1001,6 hPa 0,0 l/m 0 min 0 min 0,0 UV-I 0 W/m 5,1 km/h (1 Bft)
05.01.2014 06:16 6,3 C 4,4 C 94 % 1001,7 hPa 0,0 l/m 0 min 0 min 0,0 UV-I 0 W/m 2,6 km/h (1 Bft)
05.01.2014 06:18 6,2 C 4,4 C 94 % 1001,7 hPa 0,0 l/m 0 min 0 min 0,0 UV-I 0 W/m 10,3 km/h (2 Bft)
05.01.2014 06:20 6,2 C 4,4 C 94 % 1001,8 hPa 0,0 l/m 0 min 0 min 0,0 UV-I 0 W/m 7,7 km/h (2 Bft)
05.01.2014 06:22 6,2 C 4,4 C 94 % 1001,9 hPa 0,0 l/m 0 min 0 min 0,0 UV-I 0 W/m 0,0 km/h (0 Bft)
05.01.2014 06:24 6,2 C 4,4 C 94 % 1002,0 hPa 0,0 l/m 0 min 0 min 0,0 UV-I 0 W/m 0,0 km/h (0 Bft)
05.01.2014 06:26 6,2 C 4,4 C 94 % 1001,9 hPa 0,0 l/m 0 min 0 min 0,0 UV-I 0 W/m 7,7 km/h (2 Bft)
05.01.2014 06:28 6,1 C 4,4 C 94 % 1002,0 hPa 0,0 l/m 0 min 0 min 0,0 UV-I 0 W/m 0,0 km/h (0 Bft)
05.01.2014 06:30 6,1 C 3,9 C 94 % 1002,2 hPa 0,0 l/m 0 min 0 min 0,0 UV-I 0 W/m 7,7 km/h (2 Bft)
05.01.2014 06:32 6,1 C 3,9 C 94 % 1002,2 hPa 0,0 l/m 0 min 0 min 0,0 UV-I 0 W/m 15,4 km/h (3 Bft)
05.01.2014 06:34 6,0 C 3,9 C 94 % 1002,4 hPa 0,0 l/m 0 min 0 min 0,0 UV-I 0 W/m 0,0 km/h (0 Bft)
05.01.2014 06:36 6,0 C 3,9 C 94 % 1002,4 hPa 0,0 l/m 0 min 0 min 0,0 UV-I 0 W/m 12,9 km/h (3 Bft)
05.01.2014 06:38 5,9 C 3,9 C 94 % 1002,4 hPa 0,0 l/m 0 min 0 min 0,0 UV-I 0 W/m 10,3 km/h (2 Bft)
05.01.2014 06:40 5,9 C 3,9 C 94 % 1002,5 hPa 0,0 l/m 0 min 0 min 0,0 UV-I 0 W/m 10,3 km/h (2 Bft)
05.01.2014 06:42 5,9 C 3,9 C 94 % 1002,5 hPa 0,0 l/m 0 min 0 min 0,0 UV-I 0 W/m 15,4 km/h (3 Bft)
05.01.2014 06:44 5,9 C 3,9 C 94 % 1002,5 hPa 0,0 l/m 0 min 0 min 0,0 UV-I 0 W/m 12,9 km/h (3 Bft)
05.01.2014 06:46 5,8 C 3,9 C 94 % 1002,6 hPa 0,0 l/m 0 min 0 min 0,0 UV-I 0 W/m 7,7 km/h (2 Bft)
05.01.2014 06:48 5,8 C 3,9 C 94 % 1002,8 hPa 0,0 l/m 0 min 0 min 0,0 UV-I 0 W/m 7,7 km/h (2 Bft)
05.01.2014 06:50 5,8 C 3,9 C 94 % 1002,9 hPa 0,0 l/m 0 min 0 min 0,0 UV-I 0 W/m 10,3 km/h (2 Bft)
05.01.2014 06:52 5,8 C 3,9 C 94 % 1002,9 hPa 0,0 l/m 0 min 0 min 0,0 UV-I 0 W/m 10,3 km/h (2 Bft)
05.01.2014 06:54 5,8 C 3,9 C 94 % 1002,9 hPa 0,0 l/m 0 min 0 min 0,0 UV-I 0 W/m 7,7 km/h (2 Bft)
05.01.2014 06:56 5,8 C 3,9 C 94 % 1002,9 hPa 0,0 l/m 0 min 0 min 0,0 UV-I 0 W/m 12,9 km/h (3 Bft)
05.01.2014 06:58 5,7 C 3,9 C 94 % 1002,8 hPa 0,0 l/m 0 min 0 min 0,0 UV-I 0 W/m 7,7 km/h (2 Bft)
05.01.2014 07:00 5,7 C 3,9 C 94 % 1002,9 hPa 0,0 l/m 0 min 0 min 0,0 UV-I 0 W/m 12,9 km/h (3 Bft)
05.01.2014 07:02 5,7 C 3,9 C 94 % 1003,0 hPa 0,0 l/m 0 min 0 min 0,0 UV-I 0 W/m 7,7 km/h (2 Bft)
05.01.2014 07:04 5,7 C 3,9 C 94 % 1003,0 hPa 0,0 l/m 0 min 0 min 0,0 UV-I 0 W/m 12,9 km/h (3 Bft)
05.01.2014 07:06 5,7 C 3,9 C 93 % 1003,0 hPa 0,0 l/m 0 min 0 min 0,0 UV-I 0 W/m 10,3 km/h (2 Bft)
05.01.2014 07:08 5,7 C 3,9 C 93 % 1003,0 hPa 0,0 l/m 0 min 0 min 0,0 UV-I 0 W/m 7,7 km/h (2 Bft)
05.01.2014 07:10 5,7 C 3,9 C 93 % 1003,1 hPa 0,0 l/m 0 min 0 min 0,0 UV-I 0 W/m 7,7 km/h (2 Bft)
05.01.2014 07:12 5,6 C 3,9 C 93 % 1003,1 hPa 0,0 l/m 0 min 0 min 0,0 UV-I 0 W/m 12,9 km/h (3 Bft)
05.01.2014 07:14 5,6 C 3,9 C 93 % 1003,2 hPa 0,0 l/m 0 min 0 min 0,0 UV-I 0 W/m 10,3 km/h (2 Bft)
05.01.2014 07:16 5,6 C 3,9 C 93 % 1003,1 hPa 0,0 l/m 0 min 0 min 0,0 UV-I 0 W/m 5,1 km/h (1 Bft)
05.01.2014 07:18 5,6 C 3,9 C 93 % 1003,2 hPa 0,0 l/m 0 min 0 min 0,0 UV-I 0 W/m 5,1 km/h (1 Bft)
05.01.2014 07:20 5,6 C 3,9 C 93 % 1003,3 hPa 0,0 l/m 0 min 0 min 0,0 UV-I 0 W/m 12,9 km/h (3 Bft)
05.01.2014 07:22 5,6 C 3,9 C 93 % 1003,4 hPa 0,0 l/m 0 min 0 min 0,0 UV-I 0 W/m 15,4 km/h (3 Bft)
05.01.2014 07:24 5,5 C 3,9 C 93 % 1003,4 hPa 0,0 l/m 0 min 0 min 0,0 UV-I 0 W/m 0,0 km/h (0 Bft)
05.01.2014 07:26 5,5 C 3,9 C 93 % 1003,4 hPa 0,0 l/m 0 min 0 min 0,0 UV-I 0 W/m 5,1 km/h (1 Bft)
05.01.2014 07:28 5,5 C 3,9 C 93 % 1003,5 hPa 0,0 l/m 0 min 0 min 0,0 UV-I 0 W/m 10,3 km/h (2 Bft)
05.01.2014 07:30 5,4 C 3,9 C 93 % 1003,5 hPa 0,0 l/m 0 min 0 min 0,0 UV-I 0 W/m 7,7 km/h (2 Bft)
05.01.2014 07:32 5,4 C 3,9 C 93 % 1003,6 hPa 0,0 l/m 0 min 0 min 0,0 UV-I 0 W/m 0,0 km/h (0 Bft)
05.01.2014 07:34 5,4 C 3,3 C 93 % 1003,7 hPa 0,0 l/m 0 min 0 min 0,0 UV-I 0 W/m 0,0 km/h (0 Bft)
05.01.2014 07:36 5,4 C 3,3 C 93 % 1003,6 hPa 0,0 l/m 0 min 0 min 0,0 UV-I 0 W/m 5,1 km/h (1 Bft)
05.01.2014 07:38 5,4 C 3,3 C 93 % 1003,7 hPa 0,0 l/m 0 min 0 min 0,0 UV-I 0 W/m 5,1 km/h (1 Bft)
05.01.2014 07:40 5,3 C 3,3 C 93 % 1003,7 hPa 0,0 l/m 0 min 0 min 0,0 UV-I 0 W/m 2,6 km/h (1 Bft)
05.01.2014 07:42 5,3 C 3,3 C 93 % 1003,7 hPa 0,0 l/m 0 min 0 min 0,0 UV-I 0 W/m 0,0 km/h (0 Bft)
05.01.2014 07:44 5,3 C 3,3 C 93 % 1003,7 hPa 0,0 l/m 0 min 0 min 0,0 UV-I 0 W/m 7,7 km/h (2 Bft)
05.01.2014 07:46 5,3 C 3,3 C 93 % 1003,8 hPa 0,0 l/m 0 min 0 min 0,0 UV-I 0 W/m 7,7 km/h (2 Bft)
05.01.2014 07:48 5,3 C 3,3 C 93 % 1003,8 hPa 0,0 l/m 0 min 0 min 0,0 UV-I 0 W/m 10,3 km/h (2 Bft)
05.01.2014 07:50 5,3 C 3,3 C 93 % 1003,9 hPa 0,0 l/m 0 min 0 min 0,0 UV-I 0 W/m 10,3 km/h (2 Bft)
05.01.2014 07:52 5,2 C 3,3 C 93 % 1003,9 hPa 0,0 l/m 0 min 0 min 0,0 UV-I 0 W/m 12,9 km/h (3 Bft)
05.01.2014 07:54 5,2 C 3,3 C 93 % 1003,9 hPa 0,0 l/m 0 min 0 min 0,0 UV-I 0 W/m 10,3 km/h (2 Bft)
05.01.2014 07:56 5,2 C 3,3 C 93 % 1004,0 hPa 0,0 l/m 0 min 0 min 0,0 UV-I 0 W/m 2,6 km/h (1 Bft)
05.01.2014 07:58 5,2 C 3,3 C 93 % 1004,1 hPa 0,0 l/m 0 min 0 min 0,0 UV-I 0 W/m 5,1 km/h (1 Bft)
05.01.2014 08:00 5,2 C 3,3 C 93 % 1004,2 hPa 0,0 l/m 0 min 0 min 0,0 UV-I 0 W/m 0,0 km/h (0 Bft)
05.01.2014 08:02 5,1 C 3,3 C 93 % 1004,2 hPa 0,0 l/m 0 min 0 min 0,0 UV-I 0 W/m 10,3 km/h (2 Bft)
05.01.2014 08:04 5,1 C 3,3 C 93 % 1004,2 hPa 0,0 l/m 0 min 0 min 0,0 UV-I 0 W/m 5,1 km/h (1 Bft)
05.01.2014 08:06 5,1 C 3,3 C 93 % 1004,3 hPa 0,0 l/m 0 min 0 min 0,0 UV-I 0 W/m 5,1 km/h (1 Bft)
05.01.2014 08:08 5,1 C 3,3 C 93 % 1004,4 hPa 0,0 l/m 0 min 0 min 0,0 UV-I 0 W/m 0,0 km/h (0 Bft)
05.01.2014 08:10 5,1 C 3,3 C 93 % 1004,4 hPa 0,0 l/m 0 min 0 min 0,0 UV-I 0 W/m 15,4 km/h (3 Bft)
05.01.2014 08:12 5,0 C 3,3 C 93 % 1004,4 hPa 0,0 l/m 0 min 0 min 0,0 UV-I 0 W/m 7,7 km/h (2 Bft)
05.01.2014 08:14 5,0 C 3,3 C 93 % 1004,5 hPa 0,0 l/m 0 min 0 min 0,0 UV-I 0 W/m 2,6 km/h (1 Bft)
05.01.2014 08:16 4,9 C 3,3 C 93 % 1004,5 hPa 0,0 l/m 0 min 0 min 0,0 UV-I 0 W/m 0,0 km/h (0 Bft)
05.01.2014 08:18 4,9 C 3,3 C 93 % 1004,6 hPa 0,0 l/m 0 min 0 min 0,0 UV-I 0 W/m 2,6 km/h (1 Bft)
05.01.2014 08:20 4,9 C 3,3 C 93 % 1004,6 hPa 0,0 l/m 0 min 0 min 0,0 UV-I 0 W/m 12,9 km/h (3 Bft)
05.01.2014 08:22 4,9 C 3,3 C 93 % 1004,6 hPa 0,0 l/m 0 min 0 min 0,0 UV-I 0 W/m 18,0 km/h (3 Bft)
05.01.2014 08:24 4,9 C 3,3 C 93 % 1004,7 hPa 0,0 l/m 0 min 0 min 0,0 UV-I 0 W/m 7,7 km/h (2 Bft)
05.01.2014 08:26 4,8 C 3,3 C 93 % 1004,6 hPa 0,0 l/m 0 min 0 min 0,0 UV-I 0 W/m 2,6 km/h (1 Bft)
05.01.2014 08:28 4,8 C 3,3 C 93 % 1004,7 hPa 0,0 l/m 0 min 0 min 0,0 UV-I 0 W/m 10,3 km/h (2 Bft)
05.01.2014 08:30 4,8 C 3,3 C 93 % 1004,6 hPa 0,0 l/m 0 min 0 min 0,0 UV-I 0 W/m 18,0 km/h (3 Bft)
05.01.2014 08:32 4,8 C 3,3 C 93 % 1004,7 hPa 0,0 l/m 0 min 0 min 0,0 UV-I 0 W/m 0,0 km/h (0 Bft)
05.01.2014 08:34 4,8 C 3,3 C 93 % 1004,7 hPa 0,0 l/m 0 min 0 min 0,0 UV-I 0 W/m 7,7 km/h (2 Bft)
05.01.2014 08:36 4,8 C 3,3 C 93 % 1004,7 hPa 0,0 l/m 0 min 0 min 0,0 UV-I 0 W/m 2,6 km/h (1 Bft)
05.01.2014 08:38 4,8 C 3,3 C 94 % 1004,7 hPa 0,0 l/m 0 min 0 min 0,0 UV-I 0 W/m 0,0 km/h (0 Bft)
05.01.2014 08:40 4,8 C 2,8 C 94 % 1004,7 hPa 0,0 l/m 0 min 0 min 0,0 UV-I 0 W/m 7,7 km/h (2 Bft)
05.01.2014 08:42 4,7 C 2,8 C 94 % 1004,8 hPa 0,0 l/m 0 min 0 min 0,0 UV-I 5 W/m 7,7 km/h (2 Bft)
05.01.2014 08:44 4,7 C 2,8 C 94 % 1004,9 hPa 0,0 l/m 0 min 0 min 0,0 UV-I 5 W/m 15,4 km/h (3 Bft)
05.01.2014 08:46 4,7 C 2,8 C 94 % 1004,8 hPa 0,0 l/m 0 min 0 min 0,0 UV-I 5 W/m 10,3 km/h (2 Bft)
05.01.2014 08:48 4,7 C 2,8 C 94 % 1004,8 hPa 0,0 l/m 0 min 0 min 0,0 UV-I 5 W/m 0,0 km/h (0 Bft)
05.01.2014 08:50 4,7 C 2,8 C 94 % 1004,9 hPa 0,0 l/m 0 min 0 min 0,0 UV-I 5 W/m 2,6 km/h (1 Bft)
05.01.2014 08:52 4,7 C 2,8 C 94 % 1005,0 hPa 0,0 l/m 0 min 0 min 0,0 UV-I 5 W/m 7,7 km/h (2 Bft)
05.01.2014 08:54 4,6 C 2,8 C 94 % 1005,0 hPa 0,0 l/m 0 min 0 min 0,0 UV-I 7 W/m 10,3 km/h (2 Bft)
05.01.2014 08:56 4,6 C 2,8 C 93 % 1005,1 hPa 0,0 l/m 0 min 0 min 0,0 UV-I 7 W/m 2,6 km/h (1 Bft)
05.01.2014 08:58 4,6 C 2,8 C 93 % 1005,1 hPa 0,0 l/m 0 min 0 min 0,0 UV-I 7 W/m 2,6 km/h (1 Bft)
05.01.2014 09:00 4,6 C 2,8 C 93 % 1005,2 hPa 0,0 l/m 0 min 0 min 0,0 UV-I 7 W/m 10,3 km/h (2 Bft)
05.01.2014 09:02 4,6 C 2,8 C 93 % 1005,2 hPa 0,0 l/m 0 min 0 min 0,0 UV-I 7 W/m 10,3 km/h (2 Bft)
05.01.2014 09:04 4,6 C 2,8 C 93 % 1005,2 hPa 0,0 l/m 0 min 0 min 0,0 UV-I 9 W/m 0,0 km/h (0 Bft)
05.01.2014 09:06 4,6 C 2,8 C 93 % 1005,1 hPa 0,0 l/m 0 min 0 min 0,0 UV-I 9 W/m 10,3 km/h (2 Bft)
05.01.2014 09:08 4,5 C 2,8 C 93 % 1005,2 hPa 0,0 l/m 0 min 0 min 0,0 UV-I 9 W/m 7,7 km/h (2 Bft)
05.01.2014 09:10 4,5 C 2,8 C 93 % 1005,3 hPa 0,0 l/m 0 min 0 min 0,0 UV-I 9 W/m 10,3 km/h (2 Bft)
05.01.2014 09:12 4,5 C 2,8 C 93 % 1005,3 hPa 0,0 l/m 0 min 0 min 0,0 UV-I 11 W/m 12,9 km/h (3 Bft)
05.01.2014 09:14 4,5 C 2,8 C 93 % 1005,4 hPa 0,0 l/m 0 min 0 min 0,0 UV-I 11 W/m 0,0 km/h (0 Bft)
05.01.2014 09:16 4,5 C 2,8 C 93 % 1005,4 hPa 0,0 l/m 0 min 0 min 0,0 UV-I 11 W/m 0,0 km/h (0 Bft)
05.01.2014 09:18 4,5 C 2,8 C 93 % 1005,5 hPa 0,0 l/m 0 min 0 min 0,0 UV-I 12 W/m 2,6 km/h (1 Bft)
05.01.2014 09:20 4,4 C 2,8 C 93 % 1005,6 hPa 0,0 l/m 0 min 0 min 0,0 UV-I 12 W/m 5,1 km/h (1 Bft)
05.01.2014 09:22 4,4 C 2,8 C 94 % 1005,6 hPa 0,0 l/m 0 min 0 min 0,0 UV-I 12 W/m 2,6 km/h (1 Bft)
05.01.2014 09:24 4,4 C 2,8 C 94 % 1005,6 hPa 0,0 l/m 0 min 0 min 0,0 UV-I 16 W/m 0,0 km/h (0 Bft)
05.01.2014 09:26 4,4 C 2,8 C 94 % 1005,7 hPa 0,0 l/m 0 min 0 min 0,0 UV-I 19 W/m 2,6 km/h (1 Bft)
05.01.2014 09:28 4,4 C 2,8 C 94 % 1005,7 hPa 0,0 l/m 0 min 0 min 0,0 UV-I 19 W/m 12,9 km/h (3 Bft)
05.01.2014 09:30 4,4 C 2,8 C 94 % 1005,7 hPa 0,0 l/m 0 min 0 min 0,0 UV-I 19 W/m 2,6 km/h (1 Bft)
05.01.2014 09:32 4,4 C 2,8 C 94 % 1005,7 hPa 0,0 l/m 0 min 0 min 0,0 UV-I 21 W/m 7,7 km/h (2 Bft)
05.01.2014 09:34 4,4 C 2,8 C 94 % 1005,8 hPa 0,0 l/m 0 min 0 min 0,0 UV-I 23 W/m 0,0 km/h (0 Bft)
05.01.2014 09:36 4,3 C 2,8 C 94 % 1005,8 hPa 0,0 l/m 0 min 0 min 0,0 UV-I 42 W/m 5,1 km/h (1 Bft)
05.01.2014 09:38 4,3 C 2,8 C 94 % 1005,7 hPa 0,0 l/m 0 min 0 min 0,0 UV-I 37 W/m 5,1 km/h (1 Bft)
05.01.2014 09:40 4,3 C 2,8 C 94 % 1005,7 hPa 0,0 l/m 0 min 0 min 0,0 UV-I 33 W/m 12,9 km/h (3 Bft)
05.01.2014 09:42 4,3 C 2,8 C 94 % 1005,8 hPa 0,0 l/m 0 min 0 min 0,0 UV-I 30 W/m 0,0 km/h (0 Bft)
05.01.2014 09:44 4,4 C 2,8 C 94 % 1005,8 hPa 0,0 l/m 0 min 0 min 0,0 UV-I 33 W/m 2,6 km/h (1 Bft)
05.01.2014 09:46 4,3 C 2,8 C 94 % 1005,9 hPa 0,0 l/m 0 min 0 min 0,0 UV-I 44 W/m 5,1 km/h (1 Bft)
05.01.2014 09:48 4,3 C 2,8 C 93 % 1005,9 hPa 0,0 l/m 0 min 0 min 0,0 UV-I 58 W/m 0,0 km/h (0 Bft)
05.01.2014 09:50 4,3 C 2,8 C 94 % 1005,9 hPa 0,0 l/m 0 min 0 min 0,0 UV-I 62 W/m 7,7 km/h (2 Bft)
05.01.2014 09:52 4,4 C 2,8 C 94 % 1006,0 hPa 0,0 l/m 0 min 0 min 0,0 UV-I 65 W/m 5,1 km/h (1 Bft)
05.01.2014 09:54 4,4 C 2,8 C 94 % 1006,1 hPa 0,0 l/m 0 min 0 min 0,0 UV-I 69 W/m 5,1 km/h (1 Bft)
05.01.2014 09:56 4,4 C 2,8 C 94 % 1006,1 hPa 0,0 l/m 0 min 0 min 0,0 UV-I 70 W/m 2,6 km/h (1 Bft)
05.01.2014 09:58 4,4 C 2,8 C 94 % 1006,0 hPa 0,0 l/m 0 min 0 min 0,0 UV-I 76 W/m 10,3 km/h (2 Bft)
05.01.2014 10:00 4,4 C 3,3 C 94 % 1006,1 hPa 0,0 l/m 0 min 0 min 0,0 UV-I 77 W/m 2,6 km/h (1 Bft)
05.01.2014 10:02 4,4 C 3,3 C 94 % 1006,1 hPa 0,0 l/m 0 min 0 min 0,0 UV-I 79 W/m 7,7 km/h (2 Bft)
05.01.2014 10:04 4,4 C 3,3 C 94 % 1006,2 hPa 0,0 l/m 0 min 0 min 0,0 UV-I 84 W/m 15,4 km/h (3 Bft)
05.01.2014 10:06 4,5 C 3,3 C 94 % 1006,2 hPa 0,0 l/m 0 min 0 min 0,0 UV-I 86 W/m 2,6 km/h (1 Bft)
05.01.2014 10:08 4,5 C 3,3 C 94 % 1006,2 hPa 0,0 l/m 2 min 0 min 0,0 UV-I 90 W/m 15,4 km/h (3 Bft)
05.01.2014 10:10 4,5 C 3,3 C 94 % 1006,2 hPa 0,0 l/m 2 min 0 min 0,0 UV-I 93 W/m 0,0 km/h (0 Bft)
05.01.2014 10:12 4,6 C 3,3 C 94 % 1006,2 hPa 0,0 l/m 2 min 0 min 0,0 UV-I 95 W/m 2,6 km/h (1 Bft)
05.01.2014 10:14 4,6 C 3,3 C 94 % 1006,3 hPa 0,0 l/m 2 min 0 min 0,0 UV-I 97 W/m 7,7 km/h (2 Bft)
05.01.2014 10:16 4,6 C 3,3 C 94 % 1006,4 hPa 0,0 l/m 2 min 0 min 0,0 UV-I 100 W/m 7,7 km/h (2 Bft)
05.01.2014 10:18 4,6 C 3,3 C 94 % 1006,4 hPa 0,0 l/m 2 min 0 min 0,0 UV-I 102 W/m 2,6 km/h (1 Bft)
05.01.2014 10:20 4,7 C 3,3 C 94 % 1006,4 hPa 0,0 l/m 2 min 0 min 0,0 UV-I 105 W/m 0,0 km/h (0 Bft)
05.01.2014 10:22 4,7 C 3,3 C 94 % 1006,5 hPa 0,0 l/m 2 min 0 min 0,0 UV-I 111 W/m 5,1 km/h (1 Bft)
05.01.2014 10:24 4,7 C 3,3 C 94 % 1006,4 hPa 0,0 l/m 2 min 0 min 0,0 UV-I 113 W/m 0,0 km/h (0 Bft)
05.01.2014 10:26 4,7 C 3,3 C 94 % 1006,4 hPa 0,0 l/m 2 min 0 min 0,0 UV-I 114 W/m 2,6 km/h (1 Bft)
05.01.2014 10:28 4,8 C 3,3 C 94 % 1006,5 hPa 0,0 l/m 2 min 0 min 0,0 UV-I 118 W/m 2,6 km/h (1 Bft)
05.01.2014 10:30 4,8 C 3,3 C 94 % 1006,5 hPa 0,0 l/m 2 min 0 min 0,0 UV-I 121 W/m 2,6 km/h (1 Bft)
05.01.2014 10:32 4,8 C 3,3 C 94 % 1006,6 hPa 0,0 l/m 2 min 0 min 0,0 UV-I 123 W/m 0,0 km/h (0 Bft)
05.01.2014 10:34 4,9 C 3,9 C 94 % 1006,6 hPa 0,0 l/m 2 min 0 min 0,0 UV-I 127 W/m 7,7 km/h (2 Bft)
05.01.2014 10:36 4,9 C 3,9 C 94 % 1006,7 hPa 0,0 l/m 2 min 0 min 0,0 UV-I 130 W/m 0,0 km/h (0 Bft)
05.01.2014 10:38 4,9 C 3,9 C 94 % 1006,7 hPa 0,0 l/m 2 min 0 min 0,0 UV-I 132 W/m 0,0 km/h (0 Bft)
05.01.2014 10:40 5,0 C 3,9 C 93 % 1006,7 hPa 0,0 l/m 2 min 0 min 0,0 UV-I 135 W/m 0,0 km/h (0 Bft)
05.01.2014 10:42 5,0 C 3,9 C 93 % 1006,7 hPa 0,0 l/m 2 min 0 min 0,0 UV-I 139 W/m 2,6 km/h (1 Bft)
05.01.2014 10:44 5,1 C 3,9 C 94 % 1006,7 hPa 0,0 l/m 2 min 0 min 0,0 UV-I 141 W/m 2,6 km/h (1 Bft)
05.01.2014 10:46 5,1 C 3,9 C 94 % 1006,8 hPa 0,0 l/m 2 min 0 min 0,0 UV-I 144 W/m 7,7 km/h (2 Bft)
05.01.2014 10:48 5,1 C 3,9 C 93 % 1006,8 hPa 0,0 l/m 2 min 0 min 0,0 UV-I 148 W/m 18,0 km/h (3 Bft)
05.01.2014 10:50 5,2 C 3,9 C 93 % 1006,8 hPa 0,0 l/m 2 min 0 min 0,0 UV-I 149 W/m 10,3 km/h (2 Bft)
05.01.2014 10:52 5,2 C 3,9 C 93 % 1006,8 hPa 0,0 l/m 2 min 0 min 0,0 UV-I 153 W/m 12,9 km/h (3 Bft)
05.01.2014 10:54 5,2 C 3,9 C 93 % 1006,9 hPa 0,0 l/m 2 min 0 min 0,0 UV-I 155 W/m 12,9 km/h (3 Bft)
05.01.2014 10:56 5,3 C 3,9 C 93 % 1006,8 hPa 0,0 l/m 2 min 0 min 0,0 UV-I 155 W/m 7,7 km/h (2 Bft)
05.01.2014 10:58 5,3 C 3,9 C 93 % 1006,8 hPa 0,0 l/m 2 min 0 min 0,0 UV-I 160 W/m 10,3 km/h (2 Bft)
05.01.2014 11:00 5,4 C 3,9 C 93 % 1006,9 hPa 0,0 l/m 2 min 0 min 0,0 UV-I 162 W/m 15,4 km/h (3 Bft)
05.01.2014 11:02 5,4 C 3,9 C 93 % 1006,9 hPa 0,0 l/m 2 min 0 min 0,0 UV-I 162 W/m 7,7 km/h (2 Bft)
05.01.2014 11:04 5,6 C 4,4 C 93 % 1006,9 hPa 0,0 l/m 2 min 0 min 0,0 UV-I 167 W/m 20,6 km/h (4 Bft)
05.01.2014 11:06 5,6 C 4,4 C 93 % 1006,9 hPa 0,0 l/m 2 min 0 min 0,0 UV-I 169 W/m 5,1 km/h (1 Bft)
05.01.2014 11:08 5,7 C 4,4 C 92 % 1006,9 hPa 0,0 l/m 2 min 0 min 0,0 UV-I 172 W/m 15,4 km/h (3 Bft)
05.01.2014 11:10 5,7 C 4,4 C 92 % 1006,9 hPa 0,0 l/m 2 min 0 min 0,0 UV-I 174 W/m 20,6 km/h (4 Bft)
05.01.2014 11:12 5,8 C 4,4 C 92 % 1007,0 hPa 0,0 l/m 2 min 0 min 0,0 UV-I 176 W/m 20,6 km/h (4 Bft)
05.01.2014 11:14 5,9 C 4,4 C 91 % 1006,9 hPa 0,0 l/m 2 min 0 min 0,0 UV-I 179 W/m 18,0 km/h (3 Bft)
05.01.2014 11:16 6,0 C 4,4 C 91 % 1006,9 hPa 0,0 l/m 2 min 0 min 0,0 UV-I 179 W/m 12,9 km/h (3 Bft)
05.01.2014 11:18 6,1 C 4,4 C 90 % 1007,0 hPa 0,0 l/m 2 min 0 min 0,0 UV-I 183 W/m 12,9 km/h (3 Bft)
05.01.2014 11:20 6,2 C 4,4 C 90 % 1006,9 hPa 0,0 l/m 2 min 0 min 0,0 UV-I 183 W/m 7,7 km/h (2 Bft)
05.01.2014 11:22 6,2 C 4,4 C 90 % 1006,9 hPa 0,0 l/m 2 min 0 min 0,0 UV-I 185 W/m 10,3 km/h (2 Bft)
05.01.2014 11:24 6,3 C 4,4 C 89 % 1007,1 hPa 0,0 l/m 2 min 0 min 0,0 UV-I 186 W/m 7,7 km/h (2 Bft)
05.01.2014 11:26 6,4 C 4,4 C 89 % 1007,2 hPa 0,0 l/m 2 min 0 min 0,0 UV-I 190 W/m 10,3 km/h (2 Bft)
05.01.2014 11:28 6,4 C 4,4 C 89 % 1007,1 hPa 0,0 l/m 2 min 0 min 0,0 UV-I 190 W/m 7,7 km/h (2 Bft)
05.01.2014 11:30 6,4 C 4,4 C 89 % 1007,1 hPa 0,0 l/m 2 min 0 min 0,0 UV-I 193 W/m 18,0 km/h (3 Bft)
05.01.2014 11:32 6,4 C 4,4 C 88 % 1007,2 hPa 0,0 l/m 2 min 0 min 0,0 UV-I 193 W/m 10,3 km/h (2 Bft)
05.01.2014 11:34 6,4 C 4,4 C 88 % 1007,1 hPa 0,0 l/m 2 min 0 min 0,0 UV-I 195 W/m 15,4 km/h (3 Bft)
05.01.2014 11:36 6,5 C 4,4 C 88 % 1007,2 hPa 0,0 l/m 2 min 0 min 0,0 UV-I 199 W/m 10,3 km/h (2 Bft)
05.01.2014 11:38 6,5 C 4,4 C 88 % 1007,2 hPa 0,0 l/m 2 min 0 min 0,0 UV-I 206 W/m 12,9 km/h (3 Bft)
05.01.2014 11:40 6,6 C 4,4 C 88 % 1007,2 hPa 0,0 l/m 2 min 0 min 0,0 UV-I 202 W/m 10,3 km/h (2 Bft)
05.01.2014 11:42 6,6 C 5,0 C 88 % 1007,2 hPa 0,0 l/m 2 min 0 min 0,0 UV-I 204 W/m 12,9 km/h (3 Bft)
05.01.2014 11:44 6,7 C 5,0 C 88 % 1007,2 hPa 0,0 l/m 2 min 0 min 0,0 UV-I 207 W/m 10,3 km/h (2 Bft)
05.01.2014 11:46 6,7 C 5,0 C 88 % 1007,2 hPa 0,0 l/m 2 min 0 min 0,0 UV-I 207 W/m 12,9 km/h (3 Bft)
05.01.2014 11:48 6,7 C 5,0 C 87 % 1007,2 hPa 0,0 l/m 2 min 0 min 0,0 UV-I 206 W/m 12,9 km/h (3 Bft)
05.01.2014 11:50 6,7 C 5,0 C 87 % 1007,3 hPa 0,0 l/m 2 min 0 min 0,0 UV-I 206 W/m 10,3 km/h (2 Bft)
05.01.2014 11:52 6,8 C 5,0 C 87 % 1007,3 hPa 0,0 l/m 2 min 0 min 0,0 UV-I 204 W/m 7,7 km/h (2 Bft)
05.01.2014 11:54 6,8 C 5,0 C 87 % 1007,3 hPa 0,0 l/m 2 min 0 min 0,0 UV-I 207 W/m 15,4 km/h (3 Bft)
05.01.2014 11:56 6,8 C 5,0 C 86 % 1007,3 hPa 0,0 l/m 2 min 0 min 0,0 UV-I 211 W/m 7,7 km/h (2 Bft)
05.01.2014 11:58 6,8 C 5,0 C 86 % 1007,3 hPa 0,0 l/m 2 min 0 min 0,0 UV-I 211 W/m 10,3 km/h (2 Bft)
05.01.2014 12:00 6,8 C 5,0 C 86 % 1007,4 hPa 0,0 l/m 2 min 0 min 0,0 UV-I 214 W/m 23,2 km/h (4 Bft)
05.01.2014 12:02 6,8 C 5,0 C 86 % 1007,3 hPa 0,0 l/m 2 min 0 min 0,0 UV-I 213 W/m 12,9 km/h (3 Bft)
05.01.2014 12:04 6,8 C 5,0 C 86 % 1007,3 hPa 0,0 l/m 2 min 0 min 0,0 UV-I 211 W/m 20,6 km/h (4 Bft)
05.01.2014 12:06 6,9 C 5,0 C 86 % 1007,4 hPa 0,0 l/m 2 min 0 min 0,0 UV-I 214 W/m 18,0 km/h (3 Bft)
05.01.2014 12:08 6,9 C 5,0 C 86 % 1007,3 hPa 0,0 l/m 2 min 0 min 0,0 UV-I 213 W/m 10,3 km/h (2 Bft)
05.01.2014 12:10 6,9 C 5,0 C 86 % 1007,3 hPa 0,0 l/m 2 min 0 min 0,0 UV-I 216 W/m 7,7 km/h (2 Bft)
05.01.2014 12:12 6,9 C 5,0 C 86 % 1007,4 hPa 0,0 l/m 2 min 0 min 0,0 UV-I 156 W/m 23,2 km/h (4 Bft)
05.01.2014 12:14 6,9 C 5,0 C 85 % 1007,4 hPa 0,0 l/m 2 min 0 min 0,0 UV-I 213 W/m 20,6 km/h (4 Bft)
05.01.2014 12:16 6,9 C 5,0 C 85 % 1007,2 hPa 0,0 l/m 2 min 0 min 0,0 UV-I 220 W/m 10,3 km/h (2 Bft)
05.01.2014 12:18 6,9 C 5,0 C 85 % 1007,3 hPa 0,0 l/m 2 min 0 min 0,0 UV-I 221 W/m 15,4 km/h (3 Bft)
05.01.2014 12:20 6,9 C 5,0 C 85 % 1007,3 hPa 0,0 l/m 2 min 0 min 0,0 UV-I 221 W/m 7,7 km/h (2 Bft)
05.01.2014 12:22 7,0 C 5,6 C 85 % 1007,3 hPa 0,0 l/m 2 min 0 min 0,0 UV-I 221 W/m 7,7 km/h (2 Bft)
05.01.2014 12:24 7,1 C 5,6 C 85 % 1007,4 hPa 0,0 l/m 2 min 0 min 0,0 UV-I 223 W/m 18,0 km/h (3 Bft)
05.01.2014 12:26 7,1 C 5,6 C 85 % 1007,3 hPa 0,0 l/m 2 min 0 min 0,0 UV-I 225 W/m 0,0 km/h (0 Bft)
05.01.2014 12:28 7,2 C 5,6 C 85 % 1007,3 hPa 0,0 l/m 2 min 0 min 0,0 UV-I 227 W/m 15,4 km/h (3 Bft)
05.01.2014 12:30 7,3 C 5,6 C 85 % 1007,4 hPa 0,0 l/m 2 min 0 min 0,0 UV-I 225 W/m 10,3 km/h (2 Bft)
05.01.2014 12:32 7,3 C 5,6 C 84 % 1007,5 hPa 0,0 l/m 2 min 0 min 0,0 UV-I 221 W/m 5,1 km/h (1 Bft)
05.01.2014 12:34 7,3 C 5,6 C 84 % 1007,3 hPa 0,0 l/m 2 min 0 min 0,0 UV-I 218 W/m 18,0 km/h (3 Bft)
05.01.2014 12:36 7,3 C 5,6 C 84 % 1007,5 hPa 0,0 l/m 2 min 0 min 0,0 UV-I 229 W/m 12,9 km/h (3 Bft)
05.01.2014 12:38 7,3 C 5,6 C 84 % 1007,5 hPa 0,0 l/m 2 min 0 min 0,0 UV-I 225 W/m 10,3 km/h (2 Bft)
05.01.2014 12:40 7,3 C 5,6 C 83 % 1007,5 hPa 0,0 l/m 2 min 0 min 0,0 UV-I 230 W/m 12,9 km/h (3 Bft)
05.01.2014 12:42 7,3 C 5,6 C 83 % 1007,5 hPa 0,0 l/m 2 min 0 min 0,0 UV-I 229 W/m 15,4 km/h (3 Bft)
05.01.2014 12:44 7,3 C 5,6 C 84 % 1007,4 hPa 0,0 l/m 2 min 0 min 0,0 UV-I 229 W/m 15,4 km/h (3 Bft)
05.01.2014 12:46 7,3 C 5,6 C 84 % 1007,3 hPa 0,0 l/m 2 min 0 min 0,0 UV-I 230 W/m 7,7 km/h (2 Bft)
05.01.2014 12:48 7,3 C 5,6 C 84 % 1007,3 hPa 0,0 l/m 2 min 0 min 0,0 UV-I 230 W/m 12,9 km/h (3 Bft)
05.01.2014 12:50 7,3 C 5,6 C 83 % 1007,3 hPa 0,0 l/m 2 min 0 min 0,0 UV-I 232 W/m 12,9 km/h (3 Bft)
05.01.2014 12:52 7,4 C 5,6 C 83 % 1007,2 hPa 0,0 l/m 2 min 0 min 0,0 UV-I 232 W/m 10,3 km/h (2 Bft)
05.01.2014 12:54 7,4 C 6,1 C 83 % 1007,3 hPa 0,0 l/m 2 min 0 min 0,0 UV-I 230 W/m 12,9 km/h (3 Bft)
05.01.2014 12:56 7,3 C 6,1 C 83 % 1007,3 hPa 0,0 l/m 2 min 0 min 0,0 UV-I 232 W/m 15,4 km/h (3 Bft)
05.01.2014 12:58 7,3 C 6,1 C 82 % 1007,2 hPa 0,0 l/m 2 min 0 min 0,0 UV-I 232 W/m 15,4 km/h (3 Bft)
05.01.2014 13:00 7,4 C 6,1 C 82 % 1007,2 hPa 0,0 l/m 2 min 0 min 0,0 UV-I 232 W/m 18,0 km/h (3 Bft)
05.01.2014 13:02 7,4 C 5,6 C 82 % 1007,3 hPa 0,0 l/m 2 min 0 min 0,0 UV-I 230 W/m 15,4 km/h (3 Bft)
05.01.2014 13:04 7,4 C 6,1 C 82 % 1007,4 hPa 0,0 l/m 2 min 0 min 0,0 UV-I 230 W/m 10,3 km/h (2 Bft)
05.01.2014 13:06 7,4 C 6,1 C 82 % 1007,5 hPa 0,0 l/m 2 min 0 min 0,0 UV-I 229 W/m 18,0 km/h (3 Bft)
05.01.2014 13:08 7,4 C 6,1 C 82 % 1007,5 hPa 0,0 l/m 2 min 0 min 0,0 UV-I 230 W/m 10,3 km/h (2 Bft)
05.01.2014 13:10 7,5 C 6,1 C 82 % 1007,6 hPa 0,0 l/m 2 min 0 min 0,0 UV-I 232 W/m 15,4 km/h (3 Bft)
05.01.2014 13:12 7,5 C 6,1 C 82 % 1007,7 hPa 0,0 l/m 2 min 0 min 0,0 UV-I 227 W/m 25,7 km/h (4 Bft)
05.01.2014 13:14 7,5 C 6,1 C 81 % 1007,7 hPa 0,0 l/m 2 min 0 min 0,0 UV-I 227 W/m 30,9 km/h (5 Bft)
05.01.2014 13:16 7,5 C 6,1 C 81 % 1007,8 hPa 0,0 l/m 2 min 0 min 0,0 UV-I 227 W/m 15,4 km/h (3 Bft)
05.01.2014 13:18 7,5 C 6,1 C 81 % 1007,8 hPa 0,0 l/m 2 min 0 min 0,0 UV-I 225 W/m 12,9 km/h (3 Bft)
05.01.2014 13:20 7,6 C 6,1 C 81 % 1007,8 hPa 0,0 l/m 2 min 0 min 0,0 UV-I 230 W/m 0,0 km/h (0 Bft)
05.01.2014 13:22 7,6 C 6,1 C 82 % 1007,9 hPa 0,0 l/m 2 min 0 min 0,0 UV-I 227 W/m 12,9 km/h (3 Bft)
05.01.2014 13:24 7,7 C 6,1 C 82 % 1007,8 hPa 0,0 l/m 2 min 0 min 0,0 UV-I 223 W/m 2,6 km/h (1 Bft)
05.01.2014 13:26 7,7 C 6,1 C 82 % 1007,8 hPa 0,0 l/m 2 min 0 min 0,0 UV-I 225 W/m 5,1 km/h (1 Bft)
05.01.2014 13:28 7,8 C 6,1 C 82 % 1007,9 hPa 0,0 l/m 2 min 0 min 0,0 UV-I 225 W/m 7,7 km/h (2 Bft)
05.01.2014 13:30 7,8 C 6,1 C 82 % 1007,9 hPa 0,0 l/m 2 min 0 min 0,0 UV-I 232 W/m 7,7 km/h (2 Bft)
05.01.2014 13:32 7,9 C 6,1 C 81 % 1007,9 hPa 0,0 l/m 2 min 0 min 0,0 UV-I 225 W/m 10,3 km/h (2 Bft)
05.01.2014 13:34 7,9 C 6,1 C 81 % 1008,0 hPa 0,0 l/m 2 min 0 min 0,0 UV-I 221 W/m 15,4 km/h (3 Bft)
05.01.2014 13:36 7,8 C 6,1 C 80 % 1008,0 hPa 0,0 l/m 2 min 0 min 0,0 UV-I 220 W/m 15,4 km/h (3 Bft)
05.01.2014 13:38 7,8 C 6,1 C 80 % 1008,0 hPa 0,0 l/m 2 min 0 min 0,0 UV-I 218 W/m 10,3 km/h (2 Bft)
05.01.2014 13:40 7,8 C 6,1 C 80 % 1008,0 hPa 0,0 l/m 2 min 0 min 0,0 UV-I 216 W/m 7,7 km/h (2 Bft)
05.01.2014 13:42 7,7 C 6,1 C 80 % 1008,0 hPa 0,0 l/m 2 min 0 min 0,0 UV-I 218 W/m 15,4 km/h (3 Bft)
05.01.2014 13:44 7,7 C 6,1 C 80 % 1008,1 hPa 0,0 l/m 2 min 0 min 0,0 UV-I 216 W/m 20,6 km/h (4 Bft)
05.01.2014 13:46 7,8 C 6,1 C 80 % 1008,1 hPa 0,0 l/m 2 min 0 min 0,0 UV-I 216 W/m 20,6 km/h (4 Bft)
05.01.2014 13:48 7,8 C 6,1 C 80 % 1008,1 hPa 0,0 l/m 2 min 0 min 0,0 UV-I 214 W/m 12,9 km/h (3 Bft)
05.01.2014 13:50 7,8 C 6,1 C 80 % 1008,1 hPa 0,0 l/m 2 min 0 min 0,0 UV-I 206 W/m 15,4 km/h (3 Bft)
05.01.2014 13:52 7,8 C 6,1 C 80 % 1008,2 hPa 0,0 l/m 2 min 0 min 0,0 UV-I 211 W/m 12,9 km/h (3 Bft)
05.01.2014 13:54 7,9 C 6,1 C 80 % 1008,2 hPa 0,0 l/m 2 min 0 min 0,0 UV-I 211 W/m 15,4 km/h (3 Bft)
05.01.2014 13:56 7,8 C 6,1 C 80 % 1008,2 hPa 0,0 l/m 2 min 0 min 0,0 UV-I 211 W/m 15,4 km/h (3 Bft)
05.01.2014 13:58 7,8 C 6,1 C 80 % 1008,2 hPa 0,0 l/m 2 min 0 min 0,0 UV-I 206 W/m 18,0 km/h (3 Bft)
05.01.2014 14:00 7,8 C 6,1 C 80 % 1008,3 hPa 0,0 l/m 2 min 0 min 0,0 UV-I 214 W/m 5,1 km/h (1 Bft)
05.01.2014 14:02 7,9 C 6,1 C 80 % 1008,4 hPa 0,0 l/m 2 min 0 min 0,0 UV-I 216 W/m 18,0 km/h (3 Bft)
05.01.2014 14:04 7,9 C 6,7 C 79 % 1008,3 hPa 0,0 l/m 2 min 0 min 0,0 UV-I 229 W/m 20,6 km/h (4 Bft)
05.01.2014 14:06 7,9 C 6,7 C 79 % 1008,4 hPa 0,0 l/m 2 min 0 min 0,0 UV-I 223 W/m 20,6 km/h (4 Bft)
05.01.2014 14:08 7,9 C 6,7 C 79 % 1008,4 hPa 0,0 l/m 2 min 0 min 0,0 UV-I 169 W/m 18,0 km/h (3 Bft)
05.01.2014 14:10 7,9 C 6,7 C 79 % 1008,4 hPa 0,0 l/m 2 min 0 min 0,0 UV-I 142 W/m 18,0 km/h (3 Bft)
05.01.2014 14:12 7,9 C 6,7 C 78 % 1008,5 hPa 0,0 l/m 2 min 0 min 0,0 UV-I 174 W/m 10,3 km/h (2 Bft)
05.01.2014 14:14 7,9 C 6,1 C 79 % 1008,4 hPa 0,0 l/m 0 min 0 min 0,0 UV-I 102 W/m 12,9 km/h (3 Bft)
05.01.2014 14:16 7,8 C 6,1 C 79 % 1008,4 hPa 0,0 l/m 0 min 0 min 0,0 UV-I 111 W/m 12,9 km/h (3 Bft)
05.01.2014 14:18 7,8 C 6,1 C 79 % 1008,5 hPa 0,0 l/m 2 min 0 min 0,0 UV-I 149 W/m 15,4 km/h (3 Bft)
05.01.2014 14:20 7,7 C 6,1 C 79 % 1008,5 hPa 0,0 l/m 2 min 0 min 0,0 UV-I 128 W/m 12,9 km/h (3 Bft)
05.01.2014 14:22 7,7 C 6,1 C 79 % 1008,5 hPa 0,0 l/m 2 min 0 min 0,0 UV-I 200 W/m 7,7 km/h (2 Bft)
05.01.2014 14:24 7,7 C 6,1 C 79 % 1008,6 hPa 0,0 l/m 2 min 0 min 0,0 UV-I 193 W/m 10,3 km/h (2 Bft)
05.01.2014 14:26 7,7 C 6,1 C 79 % 1008,6 hPa 0,0 l/m 2 min 0 min 0,0 UV-I 190 W/m 12,9 km/h (3 Bft)
05.01.2014 14:28 7,8 C 6,7 C 79 % 1008,6 hPa 0,0 l/m 2 min 0 min 0,0 UV-I 213 W/m 15,4 km/h (3 Bft)
05.01.2014 14:30 7,8 C 6,7 C 79 % 1008,7 hPa 0,0 l/m 2 min 0 min 0,0 UV-I 190 W/m 28,3 km/h (4 Bft)
05.01.2014 14:32 7,8 C 6,7 C 79 % 1008,6 hPa 0,0 l/m 2 min 0 min 0,0 UV-I 176 W/m 20,6 km/h (4 Bft)
05.01.2014 14:34 7,8 C 6,7 C 79 % 1008,6 hPa 0,0 l/m 2 min 0 min 0,0 UV-I 171 W/m 10,3 km/h (2 Bft)
05.01.2014 14:36 7,8 C 6,1 C 79 % 1008,6 hPa 0,0 l/m 2 min 0 min 0,0 UV-I 163 W/m 7,7 km/h (2 Bft)
05.01.2014 14:38 7,8 C 6,1 C 79 % 1008,6 hPa 0,0 l/m 2 min 0 min 0,0 UV-I 165 W/m 12,9 km/h (3 Bft)
05.01.2014 14:40 7,7 C 6,1 C 79 % 1008,5 hPa 0,0 l/m 0 min 0 min 0,0 UV-I 84 W/m 15,4 km/h (3 Bft)
05.01.2014 14:42 7,7 C 6,1 C 79 % 1008,5 hPa 0,0 l/m 2 min 0 min 0,0 UV-I 128 W/m 5,1 km/h (1 Bft)
05.01.2014 14:44 7,6 C 6,1 C 79 % 1008,6 hPa 0,0 l/m 2 min 0 min 0,0 UV-I 128 W/m 23,2 km/h (4 Bft)
05.01.2014 14:46 7,6 C 6,1 C 79 % 1008,7 hPa 0,0 l/m 2 min 0 min 0,0 UV-I 190 W/m 18,0 km/h (3 Bft)
05.01.2014 14:48 7,6 C 6,1 C 79 % 1008,8 hPa 0,0 l/m 2 min 0 min 0,0 UV-I 158 W/m 12,9 km/h (3 Bft)
05.01.2014 14:50 7,6 C 6,1 C 79 % 1008,9 hPa 0,0 l/m 2 min 0 min 0,0 UV-I 118 W/m 10,3 km/h (2 Bft)
05.01.2014 14:52 7,6 C 6,1 C 79 % 1008,9 hPa 0,0 l/m 2 min 0 min 0,0 UV-I 153 W/m 18,0 km/h (3 Bft)
05.01.2014 14:54 7,6 C 6,1 C 79 % 1008,9 hPa 0,0 l/m 2 min 0 min 0,0 UV-I 148 W/m 10,3 km/h (2 Bft)
05.01.2014 14:56 7,6 C 6,1 C 80 % 1008,9 hPa 0,0 l/m 0 min 0 min 0,0 UV-I 93 W/m 0,0 km/h (0 Bft)
05.01.2014 14:58 7,5 C 6,1 C 80 % 1009,0 hPa 0,0 l/m 0 min 0 min 0,0 UV-I 84 W/m 0,0 km/h (0 Bft)
05.01.2014 15:00 7,5 C 6,1 C 80 % 1008,9 hPa 0,0 l/m 2 min 0 min 0,0 UV-I 113 W/m 7,7 km/h (2 Bft)
05.01.2014 15:02 7,4 C 6,1 C 80 % 1008,9 hPa 0,0 l/m 0 min 0 min 0,0 UV-I 91 W/m 10,3 km/h (2 Bft)
05.01.2014 15:04 7,4 C 6,1 C 81 % 1008,9 hPa 0,0 l/m 0 min 0 min 0,0 UV-I 91 W/m 7,7 km/h (2 Bft)
05.01.2014 15:06 7,3 C 6,1 C 81 % 1009,0 hPa 0,0 l/m 2 min 0 min 0,0 UV-I 93 W/m 10,3 km/h (2 Bft)
05.01.2014 15:08 7,3 C 6,1 C 80 % 1009,0 hPa 0,0 l/m 2 min 0 min 0,0 UV-I 98 W/m 7,7 km/h (2 Bft)
05.01.2014 15:10 7,3 C 6,1 C 80 % 1009,0 hPa 0,0 l/m 0 min 0 min 0,0 UV-I 72 W/m 10,3 km/h (2 Bft)
05.01.2014 15:12 7,3 C 6,1 C 81 % 1009,1 hPa 0,0 l/m 0 min 0 min 0,0 UV-I 69 W/m 0,0 km/h (0 Bft)
05.01.2014 15:14 7,3 C 6,1 C 81 % 1009,2 hPa 0,0 l/m 0 min 0 min 0,0 UV-I 65 W/m 0,0 km/h (0 Bft)
05.01.2014 15:16 7,2 C 5,6 C 81 % 1009,2 hPa 0,0 l/m 0 min 0 min 0,0 UV-I 63 W/m 10,3 km/h (2 Bft)
05.01.2014 15:18 7,2 C 5,6 C 81 % 1009,2 hPa 0,0 l/m 0 min 0 min 0,0 UV-I 62 W/m 12,9 km/h (3 Bft)
05.01.2014 15:20 7,2 C 5,6 C 81 % 1009,2 hPa 0,0 l/m 0 min 0 min 0,0 UV-I 60 W/m 7,7 km/h (2 Bft)
05.01.2014 15:22 7,2 C 5,6 C 81 % 1009,1 hPa 0,0 l/m 0 min 0 min 0,0 UV-I 58 W/m 5,1 km/h (1 Bft)
05.01.2014 15:24 7,1 C 5,6 C 81 % 1009,2 hPa 0,0 l/m 0 min 0 min 0,0 UV-I 53 W/m 2,6 km/h (1 Bft)
05.01.2014 15:26 7,1 C 5,6 C 81 % 1009,2 hPa 0,0 l/m 0 min 0 min 0,0 UV-I 44 W/m 10,3 km/h (2 Bft)
05.01.2014 15:28 7,1 C 5,6 C 81 % 1009,4 hPa 0,0 l/m 0 min 0 min 0,0 UV-I 44 W/m 0,0 km/h (0 Bft)
05.01.2014 15:30 7,1 C 5,6 C 81 % 1009,5 hPa 0,0 l/m 0 min 0 min 0,0 UV-I 44 W/m 0,0 km/h (0 Bft)
05.01.2014 15:32 7,1 C 5,6 C 82 % 1009,4 hPa 0,0 l/m 0 min 0 min 0,0 UV-I 44 W/m 0,0 km/h (0 Bft)
05.01.2014 15:34 7,1 C 5,6 C 82 % 1009,6 hPa 0,0 l/m 0 min 0 min 0,0 UV-I 44 W/m 5,1 km/h (1 Bft)
05.01.2014 15:36 7,1 C 5,6 C 82 % 1009,6 hPa 0,0 l/m 0 min 0 min 0,0 UV-I 44 W/m 0,0 km/h (0 Bft)
05.01.2014 15:38 7,0 C 5,6 C 82 % 1009,7 hPa 0,0 l/m 0 min 0 min 0,0 UV-I 42 W/m 10,3 km/h (2 Bft)
05.01.2014 15:40 7,0 C 5,6 C 82 % 1009,8 hPa 0,0 l/m 0 min 0 min 0,0 UV-I 42 W/m 7,7 km/h (2 Bft)
05.01.2014 15:42 7,0 C 5,6 C 82 % 1009,8 hPa 0,0 l/m 0 min 0 min 0,0 UV-I 44 W/m 0,0 km/h (0 Bft)
05.01.2014 15:44 7,0 C 5,6 C 81 % 1009,8 hPa 0,0 l/m 0 min 0 min 0,0 UV-I 40 W/m 5,1 km/h (1 Bft)
05.01.2014 15:46 7,0 C 5,6 C 81 % 1009,8 hPa 0,0 l/m 0 min 0 min 0,0 UV-I 37 W/m 0,0 km/h (0 Bft)
05.01.2014 15:48 7,0 C 5,6 C 81 % 1009,7 hPa 0,0 l/m 0 min 0 min 0,0 UV-I 32 W/m 0,0 km/h (0 Bft)
05.01.2014 15:50 6,9 C 5,6 C 81 % 1009,8 hPa 0,0 l/m 0 min 0 min 0,0 UV-I 30 W/m 7,7 km/h (2 Bft)
05.01.2014 15:52 6,9 C 5,6 C 81 % 1009,8 hPa 0,0 l/m 0 min 0 min 0,0 UV-I 28 W/m 7,7 km/h (2 Bft)
05.01.2014 15:54 6,9 C 5,6 C 81 % 1010,1 hPa 0,0 l/m 0 min 0 min 0,0 UV-I 25 W/m 20,6 km/h (4 Bft)
05.01.2014 15:56 6,9 C 5,6 C 81 % 1010,1 hPa 0,0 l/m 0 min 0 min 0,0 UV-I 23 W/m 12,9 km/h (3 Bft)
05.01.2014 15:58 6,9 C 5,6 C 81 % 1010,1 hPa 0,0 l/m 0 min 0 min 0,0 UV-I 21 W/m 5,1 km/h (1 Bft)
05.01.2014 16:00 6,9 C 5,6 C 81 % 1010,1 hPa 0,0 l/m 0 min 0 min 0,0 UV-I 18 W/m 15,4 km/h (3 Bft)
05.01.2014 16:02 6,9 C 5,6 C 81 % 1010,2 hPa 0,0 l/m 0 min 0 min 0,0 UV-I 16 W/m 10,3 km/h (2 Bft)
05.01.2014 16:04 6,9 C 5,6 C 81 % 1010,1 hPa 0,0 l/m 0 min 0 min 0,0 UV-I 14 W/m 12,9 km/h (3 Bft)
05.01.2014 16:06 6,9 C 5,6 C 81 % 1010,2 hPa 0,0 l/m 0 min 0 min 0,0 UV-I 14 W/m 10,3 km/h (2 Bft)
05.01.2014 16:08 6,9 C 5,6 C 81 % 1010,2 hPa 0,0 l/m 0 min 0 min 0,0 UV-I 14 W/m 7,7 km/h (2 Bft)
05.01.2014 16:10 6,9 C 5,6 C 81 % 1010,1 hPa 0,0 l/m 0 min 0 min 0,0 UV-I 12 W/m 0,0 km/h (0 Bft)
05.01.2014 16:12 6,9 C 5,6 C 80 % 1010,1 hPa 0,0 l/m 0 min 0 min 0,0 UV-I 11 W/m 0,0 km/h (0 Bft)
05.01.2014 16:14 6,9 C 5,6 C 80 % 1010,2 hPa 0,0 l/m 0 min 0 min 0,0 UV-I 11 W/m 10,3 km/h (2 Bft)
05.01.2014 16:16 6,8 C 5,6 C 80 % 1010,2 hPa 0,0 l/m 0 min 0 min 0,0 UV-I 11 W/m 7,7 km/h (2 Bft)
05.01.2014 16:18 6,8 C 5,6 C 80 % 1010,3 hPa 0,0 l/m 0 min 0 min 0,0 UV-I 11 W/m 12,9 km/h (3 Bft)
05.01.2014 16:20 6,8 C 5,6 C 79 % 1010,3 hPa 0,0 l/m 0 min 0 min 0,0 UV-I 9 W/m 15,4 km/h (3 Bft)
05.01.2014 16:22 6,8 C 5,6 C 79 % 1010,3 hPa 0,0 l/m 0 min 0 min 0,0 UV-I 7 W/m 10,3 km/h (2 Bft)
05.01.2014 16:24 6,8 C 5,6 C 79 % 1010,4 hPa 0,0 l/m 0 min 0 min 0,0 UV-I 5 W/m 15,4 km/h (3 Bft)
05.01.2014 16:26 6,8 C 5,6 C 79 % 1010,3 hPa 0,0 l/m 0 min 0 min 0,0 UV-I 5 W/m 0,0 km/h (0 Bft)
05.01.2014 16:28 6,8 C 5,6 C 79 % 1010,3 hPa 0,0 l/m 0 min 0 min 0,0 UV-I 5 W/m 5,1 km/h (1 Bft)
05.01.2014 16:30 6,8 C 5,6 C 79 % 1010,3 hPa 0,0 l/m 0 min 0 min 0,0 UV-I 5 W/m 20,6 km/h (4 Bft)
05.01.2014 16:32 6,8 C 5,6 C 78 % 1010,4 hPa 0,0 l/m 0 min 0 min 0,0 UV-I 0 W/m 15,4 km/h (3 Bft)
05.01.2014 16:34 6,8 C 5,6 C 79 % 1010,3 hPa 0,0 l/m 0 min 0 min 0,0 UV-I 0 W/m 10,3 km/h (2 Bft)
05.01.2014 16:36 6,8 C 5,6 C 79 % 1010,4 hPa 0,0 l/m 0 min 0 min 0,0 UV-I 0 W/m 10,3 km/h (2 Bft)
05.01.2014 16:38 6,8 C 5,0 C 79 % 1010,4 hPa 0,0 l/m 0 min 0 min 0,0 UV-I 0 W/m 10,3 km/h (2 Bft)
05.01.2014 16:40 6,8 C 5,0 C 79 % 1010,4 hPa 0,0 l/m 0 min 0 min 0,0 UV-I 0 W/m 10,3 km/h (2 Bft)
05.01.2014 16:42 6,7 C 5,0 C 79 % 1010,3 hPa 0,0 l/m 0 min 0 min 0,0 UV-I 0 W/m 0,0 km/h (0 Bft)
05.01.2014 16:44 6,7 C 5,0 C 80 % 1010,4 hPa 0,0 l/m 0 min 0 min 0,0 UV-I 0 W/m 10,3 km/h (2 Bft)
05.01.2014 16:46 6,7 C 5,0 C 80 % 1010,4 hPa 0,0 l/m 0 min 0 min 0,0 UV-I 0 W/m 12,9 km/h (3 Bft)
05.01.2014 16:48 6,7 C 5,0 C 80 % 1010,4 hPa 0,0 l/m 0 min 0 min 0,0 UV-I 0 W/m 5,1 km/h (1 Bft)
05.01.2014 16:50 6,7 C 5,0 C 80 % 1010,3 hPa 0,0 l/m 0 min 0 min 0,0 UV-I 0 W/m 7,7 km/h (2 Bft)
05.01.2014 16:52 6,6 C 5,0 C 81 % 1010,3 hPa 0,0 l/m 0 min 0 min 0,0 UV-I 0 W/m 0,0 km/h (0 Bft)
05.01.2014 16:54 6,6 C 5,0 C 81 % 1010,4 hPa 0,0 l/m 0 min 0 min 0,0 UV-I 0 W/m 12,9 km/h (3 Bft)
05.01.2014 16:56 6,6 C 5,0 C 81 % 1010,5 hPa 0,0 l/m 0 min 0 min 0,0 UV-I 0 W/m 10,3 km/h (2 Bft)
05.01.2014 16:58 6,6 C 5,0 C 81 % 1010,4 hPa 0,0 l/m 0 min 0 min 0,0 UV-I 0 W/m 7,7 km/h (2 Bft)
05.01.2014 17:00 6,5 C 5,0 C 81 % 1010,4 hPa 0,0 l/m 0 min 0 min 0,0 UV-I 0 W/m 7,7 km/h (2 Bft)
05.01.2014 17:02 6,5 C 5,0 C 81 % 1010,5 hPa 0,0 l/m 0 min 0 min 0,0 UV-I 0 W/m 10,3 km/h (2 Bft)
05.01.2014 17:04 6,5 C 5,0 C 81 % 1010,4 hPa 0,0 l/m 0 min 0 min 0,0 UV-I 0 W/m 15,4 km/h (3 Bft)
05.01.2014 17:06 6,5 C 5,0 C 81 % 1010,5 hPa 0,0 l/m 0 min 0 min 0,0 UV-I 0 W/m 23,2 km/h (4 Bft)
05.01.2014 17:08 6,5 C 5,0 C 81 % 1010,4 hPa 0,0 l/m 0 min 0 min 0,0 UV-I 0 W/m 15,4 km/h (3 Bft)
05.01.2014 17:10 6,5 C 5,0 C 81 % 1010,5 hPa 0,0 l/m 0 min 0 min 0,0 UV-I 0 W/m 12,9 km/h (3 Bft)
05.01.2014 17:12 6,4 C 5,0 C 81 % 1010,3 hPa 0,0 l/m 0 min 0 min 0,0 UV-I 0 W/m 15,4 km/h (3 Bft)
05.01.2014 17:14 6,4 C 5,0 C 80 % 1010,4 hPa 0,0 l/m 0 min 0 min 0,0 UV-I 0 W/m 7,7 km/h (2 Bft)
05.01.2014 17:16 6,4 C 5,0 C 80 % 1010,4 hPa 0,0 l/m 0 min 0 min 0,0 UV-I 0 W/m 18,0 km/h (3 Bft)
05.01.2014 17:18 6,4 C 5,0 C 80 % 1010,4 hPa 0,0 l/m 0 min 0 min 0,0 UV-I 0 W/m 7,7 km/h (2 Bft)
05.01.2014 17:20 6,4 C 4,4 C 80 % 1010,3 hPa 0,0 l/m 0 min 0 min 0,0 UV-I 0 W/m 12,9 km/h (3 Bft)
05.01.2014 17:22 6,4 C 4,4 C 80 % 1010,2 hPa 0,0 l/m 0 min 0 min 0,0 UV-I 0 W/m 12,9 km/h (3 Bft)
05.01.2014 17:24 6,3 C 4,4 C 80 % 1010,2 hPa 0,0 l/m 0 min 0 min 0,0 UV-I 0 W/m 12,9 km/h (3 Bft)
05.01.2014 17:26 6,3 C 4,4 C 80 % 1010,2 hPa 0,0 l/m 0 min 0 min 0,0 UV-I 0 W/m 15,4 km/h (3 Bft)
05.01.2014 17:28 6,2 C 4,4 C 80 % 1010,2 hPa 0,0 l/m 0 min 0 min 0,0 UV-I 0 W/m 15,4 km/h (3 Bft)
05.01.2014 17:30 6,2 C 4,4 C 80 % 1010,2 hPa 0,0 l/m 0 min 0 min 0,0 UV-I 0 W/m 12,9 km/h (3 Bft)
05.01.2014 17:32 6,2 C 4,4 C 80 % 1010,2 hPa 0,0 l/m 0 min 0 min 0,0 UV-I 0 W/m 18,0 km/h (3 Bft)
05.01.2014 17:34 6,2 C 4,4 C 80 % 1010,2 hPa 0,0 l/m 0 min 0 min 0,0 UV-I 0 W/m 18,0 km/h (3 Bft)
05.01.2014 17:36 6,1 C 4,4 C 81 % 1010,2 hPa 0,0 l/m 0 min 0 min 0,0 UV-I 0 W/m 28,3 km/h (4 Bft)
05.01.2014 17:38 6,1 C 4,4 C 81 % 1010,1 hPa 0,0 l/m 0 min 0 min 0,0 UV-I 0 W/m 20,6 km/h (4 Bft)
05.01.2014 17:40 6,1 C 4,4 C 81 % 1010,1 hPa 0,0 l/m 0 min 0 min 0,0 UV-I 0 W/m 0,0 km/h (0 Bft)
05.01.2014 17:42 6,1 C 4,4 C 81 % 1010,1 hPa 0,0 l/m 0 min 0 min 0,0 UV-I 0 W/m 20,6 km/h (4 Bft)
05.01.2014 17:44 6,1 C 4,4 C 81 % 1010,1 hPa 0,0 l/m 0 min 0 min 0,0 UV-I 0 W/m 20,6 km/h (4 Bft)
05.01.2014 17:46 6,1 C 4,4 C 81 % 1010,1 hPa 0,0 l/m 0 min 0 min 0,0 UV-I 0 W/m 10,3 km/h (2 Bft)
05.01.2014 17:48 6,1 C 4,4 C 81 % 1010,2 hPa 0,0 l/m 0 min 0 min 0,0 UV-I 0 W/m 7,7 km/h (2 Bft)
05.01.2014 17:50 6,0 C 3,9 C 80 % 1010,2 hPa 0,0 l/m 0 min 0 min 0,0 UV-I 0 W/m 12,9 km/h (3 Bft)
05.01.2014 17:52 6,0 C 3,9 C 81 % 1010,1 hPa 0,0 l/m 0 min 0 min 0,0 UV-I 0 W/m 12,9 km/h (3 Bft)
05.01.2014 17:54 5,9 C 3,9 C 81 % 1010,1 hPa 0,0 l/m 0 min 0 min 0,0 UV-I 0 W/m 12,9 km/h (3 Bft)
05.01.2014 17:56 5,9 C 3,9 C 81 % 1010,1 hPa 0,0 l/m 0 min 0 min 0,0 UV-I 0 W/m 10,3 km/h (2 Bft)
05.01.2014 17:58 5,8 C 3,9 C 81 % 1010,1 hPa 0,0 l/m 0 min 0 min 0,0 UV-I 0 W/m 15,4 km/h (3 Bft)
05.01.2014 18:00 5,8 C 3,9 C 81 % 1010,1 hPa 0,0 l/m 0 min 0 min 0,0 UV-I 0 W/m 20,6 km/h (4 Bft)
05.01.2014 18:02 5,8 C 3,9 C 81 % 1010,1 hPa 0,0 l/m 0 min 0 min 0,0 UV-I 0 W/m 0,0 km/h (0 Bft)
05.01.2014 18:04 5,8 C 3,9 C 81 % 1010,0 hPa 0,0 l/m 0 min 0 min 0,0 UV-I 0 W/m 7,7 km/h (2 Bft)
05.01.2014 18:06 5,8 C 3,9 C 81 % 1009,8 hPa 0,0 l/m 0 min 0 min 0,0 UV-I 0 W/m 10,3 km/h (2 Bft)
05.01.2014 18:08 5,7 C 3,9 C 81 % 1009,6 hPa 0,0 l/m 0 min 0 min 0,0 UV-I 0 W/m 18,0 km/h (3 Bft)
05.01.2014 18:10 5,7 C 3,9 C 81 % 1009,6 hPa 0,0 l/m 0 min 0 min 0,0 UV-I 0 W/m 15,4 km/h (3 Bft)
05.01.2014 18:12 5,7 C 3,9 C 81 % 1009,6 hPa 0,0 l/m 0 min 0 min 0,0 UV-I 0 W/m 12,9 km/h (3 Bft)
05.01.2014 18:14 5,6 C 3,9 C 82 % 1009,6 hPa 0,0 l/m 0 min 0 min 0,0 UV-I 0 W/m 15,4 km/h (3 Bft)
05.01.2014 18:16 5,6 C 3,9 C 82 % 1009,5 hPa 0,0 l/m 0 min 0 min 0,0 UV-I 0 W/m 15,4 km/h (3 Bft)
05.01.2014 18:18 5,6 C 3,9 C 81 % 1009,4 hPa 0,0 l/m 0 min 0 min 0,0 UV-I 0 W/m 18,0 km/h (3 Bft)
05.01.2014 18:20 5,6 C 3,9 C 81 % 1009,4 hPa 0,0 l/m 0 min 0 min 0,0 UV-I 0 W/m 15,4 km/h (3 Bft)
05.01.2014 18:22 5,6 C 3,9 C 81 % 1009,4 hPa 0,0 l/m 0 min 0 min 0,0 UV-I 0 W/m 7,7 km/h (2 Bft)
05.01.2014 18:24 5,6 C 3,9 C 81 % 1009,4 hPa 0,0 l/m 0 min 0 min 0,0 UV-I 0 W/m 10,3 km/h (2 Bft)
05.01.2014 18:26 5,6 C 3,9 C 81 % 1009,4 hPa 0,0 l/m 0 min 0 min 0,0 UV-I 0 W/m 10,3 km/h (2 Bft)
05.01.2014 18:28 5,6 C 3,9 C 81 % 1009,4 hPa 0,0 l/m 0 min 0 min 0,0 UV-I 0 W/m 5,1 km/h (1 Bft)
05.01.2014 18:30 5,6 C 3,9 C 81 % 1009,4 hPa 0,0 l/m 0 min 0 min 0,0 UV-I 0 W/m 23,2 km/h (4 Bft)
05.01.2014 18:32 5,6 C 3,9 C 81 % 1009,4 hPa 0,0 l/m 0 min 0 min 0,0 UV-I 0 W/m 5,1 km/h (1 Bft)
05.01.2014 18:34 5,5 C 3,9 C 82 % 1009,4 hPa 0,0 l/m 0 min 0 min 0,0 UV-I 0 W/m 7,7 km/h (2 Bft)
05.01.2014 18:36 5,5 C 3,9 C 82 % 1009,4 hPa 0,0 l/m 0 min 0 min 0,0 UV-I 0 W/m 7,7 km/h (2 Bft)
05.01.2014 18:38 5,5 C 3,9 C 81 % 1009,2 hPa 0,0 l/m 0 min 0 min 0,0 UV-I 0 W/m 25,7 km/h (4 Bft)
05.01.2014 18:40 5,6 C 3,9 C 81 % 1009,1 hPa 0,0 l/m 0 min 0 min 0,0 UV-I 0 W/m 15,4 km/h (3 Bft)
05.01.2014 18:42 5,6 C 3,9 C 81 % 1009,0 hPa 0,0 l/m 0 min 0 min 0,0 UV-I 0 W/m 12,9 km/h (3 Bft)
05.01.2014 18:44 5,5 C 3,9 C 81 % 1009,0 hPa 0,0 l/m 0 min 0 min 0,0 UV-I 0 W/m 10,3 km/h (2 Bft)
05.01.2014 18:46 5,5 C 3,9 C 81 % 1009,0 hPa 0,0 l/m 0 min 0 min 0,0 UV-I 0 W/m 18,0 km/h (3 Bft)
05.01.2014 18:48 5,5 C 3,9 C 81 % 1009,0 hPa 0,0 l/m 0 min 0 min 0,0 UV-I 0 W/m 7,7 km/h (2 Bft)
05.01.2014 18:50 5,4 C 3,9 C 81 % 1009,0 hPa 0,0 l/m 0 min 0 min 0,0 UV-I 0 W/m 18,0 km/h (3 Bft)
05.01.2014 18:52 5,4 C 3,9 C 81 % 1008,9 hPa 0,0 l/m 0 min 0 min 0,0 UV-I 0 W/m 0,0 km/h (0 Bft)
05.01.2014 18:54 5,4 C 3,3 C 81 % 1008,8 hPa 0,0 l/m 0 min 0 min 0,0 UV-I 0 W/m 7,7 km/h (2 Bft)
05.01.2014 18:56 5,4 C 3,3 C 81 % 1008,9 hPa 0,0 l/m 0 min 0 min 0,0 UV-I 0 W/m 15,4 km/h (3 Bft)
05.01.2014 18:58 5,3 C 3,3 C 82 % 1009,0 hPa 0,0 l/m 0 min 0 min 0,0 UV-I 0 W/m 12,9 km/h (3 Bft)
05.01.2014 19:00 5,3 C 3,3 C 82 % 1009,0 hPa 0,0 l/m 0 min 0 min 0,0 UV-I 0 W/m 5,1 km/h (1 Bft)
05.01.2014 19:02 5,2 C 3,3 C 82 % 1008,9 hPa 0,0 l/m 0 min 0 min 0,0 UV-I 0 W/m 10,3 km/h (2 Bft)
05.01.2014 19:04 5,2 C 3,3 C 82 % 1008,8 hPa 0,0 l/m 0 min 0 min 0,0 UV-I 0 W/m 10,3 km/h (2 Bft)
05.01.2014 19:06 5,2 C 3,3 C 82 % 1008,9 hPa 0,0 l/m 0 min 0 min 0,0 UV-I 0 W/m 7,7 km/h (2 Bft)
05.01.2014 19:08 5,2 C 3,3 C 82 % 1009,0 hPa 0,0 l/m 0 min 0 min 0,0 UV-I 0 W/m 10,3 km/h (2 Bft)
05.01.2014 19:10 5,1 C 3,3 C 83 % 1009,0 hPa 0,0 l/m 0 min 0 min 0,0 UV-I 0 W/m 10,3 km/h (2 Bft)
05.01.2014 19:12 5,1 C 3,3 C 83 % 1009,0 hPa 0,0 l/m 0 min 0 min 0,0 UV-I 0 W/m 2,6 km/h (1 Bft)
05.01.2014 19:14 5,1 C 3,3 C 83 % 1009,1 hPa 0,0 l/m 0 min 0 min 0,0 UV-I 0 W/m 12,9 km/h (3 Bft)
05.01.2014 19:16 5,1 C 3,3 C 83 % 1009,1 hPa 0,0 l/m 0 min 0 min 0,0 UV-I 0 W/m 7,7 km/h (2 Bft)
05.01.2014 19:18 5,1 C 3,3 C 83 % 1009,2 hPa 0,0 l/m 0 min 0 min 0,0 UV-I 0 W/m 5,1 km/h (1 Bft)
05.01.2014 19:20 5,1 C 3,3 C 83 % 1009,2 hPa 0,0 l/m 0 min 0 min 0,0 UV-I 0 W/m 7,7 km/h (2 Bft)
05.01.2014 19:22 5,1 C 3,3 C 83 % 1009,1 hPa 0,0 l/m 0 min 0 min 0,0 UV-I 0 W/m 5,1 km/h (1 Bft)
05.01.2014 19:24 5,0 C 3,3 C 83 % 1009,0 hPa 0,0 l/m 0 min 0 min 0,0 UV-I 0 W/m 20,6 km/h (4 Bft)
05.01.2014 19:26 5,1 C 3,3 C 83 % 1008,9 hPa 0,0 l/m 0 min 0 min 0,0 UV-I 0 W/m 20,6 km/h (4 Bft)
05.01.2014 19:28 5,1 C 3,3 C 83 % 1008,9 hPa 0,0 l/m 0 min 0 min 0,0 UV-I 0 W/m 10,3 km/h (2 Bft)
05.01.2014 19:30 5,1 C 3,3 C 83 % 1008,8 hPa 0,0 l/m 0 min 0 min 0,0 UV-I 0 W/m 10,3 km/h (2 Bft)
05.01.2014 19:32 5,1 C 3,3 C 83 % 1008,8 hPa 0,0 l/m 0 min 0 min 0,0 UV-I 0 W/m 5,1 km/h (1 Bft)
05.01.2014 19:34 5,1 C 3,3 C 83 % 1008,9 hPa 0,0 l/m 0 min 0 min 0,0 UV-I 0 W/m 12,9 km/h (3 Bft)
05.01.2014 19:36 5,0 C 3,3 C 83 % 1009,0 hPa 0,0 l/m 0 min 0 min 0,0 UV-I 0 W/m 5,1 km/h (1 Bft)
05.01.2014 19:38 5,1 C 3,3 C 83 % 1009,0 hPa 0,0 l/m 0 min 0 min 0,0 UV-I 0 W/m 12,9 km/h (3 Bft)
05.01.2014 19:40 5,1 C 3,3 C 83 % 1009,0 hPa 0,0 l/m 0 min 0 min 0,0 UV-I 0 W/m 12,9 km/h (3 Bft)
05.01.2014 19:42 5,1 C 3,3 C 83 % 1009,0 hPa 0,0 l/m 0 min 0 min 0,0 UV-I 0 W/m 15,4 km/h (3 Bft)
05.01.2014 19:44 5,1 C 3,3 C 83 % 1008,9 hPa 0,0 l/m 0 min 0 min 0,0 UV-I 0 W/m 10,3 km/h (2 Bft)
05.01.2014 19:46 5,1 C 3,3 C 83 % 1009,0 hPa 0,0 l/m 0 min 0 min 0,0 UV-I 0 W/m 2,6 km/h (1 Bft)
05.01.2014 19:48 5,1 C 3,3 C 83 % 1009,0 hPa 0,0 l/m 0 min 0 min 0,0 UV-I 0 W/m 7,7 km/h (2 Bft)
05.01.2014 19:50 5,1 C 3,3 C 83 % 1009,0 hPa 0,0 l/m 0 min 0 min 0,0 UV-I 0 W/m 12,9 km/h (3 Bft)
05.01.2014 19:52 5,1 C 3,3 C 83 % 1008,9 hPa 0,0 l/m 0 min 0 min 0,0 UV-I 0 W/m 10,3 km/h (2 Bft)
05.01.2014 19:54 5,0 C 3,3 C 83 % 1009,0 hPa 0,0 l/m 0 min 0 min 0,0 UV-I 0 W/m 15,4 km/h (3 Bft)
05.01.2014 19:56 5,0 C 3,3 C 83 % 1009,0 hPa 0,0 l/m 0 min 0 min 0,0 UV-I 0 W/m 18,0 km/h (3 Bft)
05.01.2014 19:58 5,0 C 3,3 C 83 % 1009,0 hPa 0,0 l/m 0 min 0 min 0,0 UV-I 0 W/m 18,0 km/h (3 Bft)
05.01.2014 20:00 5,0 C 3,3 C 83 % 1008,9 hPa 0,0 l/m 0 min 0 min 0,0 UV-I 0 W/m 12,9 km/h (3 Bft)
05.01.2014 20:02 5,0 C 3,3 C 83 % 1008,9 hPa 0,0 l/m 0 min 0 min 0,0 UV-I 0 W/m 15,4 km/h (3 Bft)
05.01.2014 20:04 5,0 C 3,3 C 83 % 1008,9 hPa 0,0 l/m 0 min 0 min 0,0 UV-I 0 W/m 10,3 km/h (2 Bft)
05.01.2014 20:06 4,9 C 3,3 C 83 % 1008,9 hPa 0,0 l/m 0 min 0 min 0,0 UV-I 0 W/m 10,3 km/h (2 Bft)
05.01.2014 20:08 4,9 C 3,3 C 83 % 1008,9 hPa 0,0 l/m 0 min 0 min 0,0 UV-I 0 W/m 10,3 km/h (2 Bft)
05.01.2014 20:12 4,9 C 3,3 C 83 % 1008,9 hPa 0,0 l/m 0 min 0 min 0,0 UV-I 0 W/m 5,1 km/h (1 Bft)
05.01.2014 20:14 4,9 C 3,3 C 83 % 1008,9 hPa 0,0 l/m 0 min 0 min 0,0 UV-I 0 W/m 10,3 km/h (2 Bft)
05.01.2014 20:16 4,8 C 3,3 C 83 % 1008,9 hPa 0,0 l/m 0 min 0 min 0,0 UV-I 0 W/m 12,9 km/h (3 Bft)
05.01.2014 20:18 4,8 C 2,8 C 83 % 1008,9 hPa 0,0 l/m 0 min 0 min 0,0 UV-I 0 W/m 7,7 km/h (2 Bft)
05.01.2014 20:20 4,8 C 2,8 C 83 % 1008,9 hPa 0,0 l/m 0 min 0 min 0,0 UV-I 0 W/m 10,3 km/h (2 Bft)
05.01.2014 20:22 4,8 C 2,8 C 83 % 1009,0 hPa 0,0 l/m 0 min 0 min 0,0 UV-I 0 W/m 10,3 km/h (2 Bft)
05.01.2014 20:24 4,7 C 2,8 C 84 % 1009,1 hPa 0,0 l/m 0 min 0 min 0,0 UV-I 0 W/m 5,1 km/h (1 Bft)
05.01.2014 20:26 4,7 C 2,8 C 83 % 1009,1 hPa 0,0 l/m 0 min 0 min 0,0 UV-I 0 W/m 7,7 km/h (2 Bft)
05.01.2014 20:28 4,7 C 2,8 C 84 % 1009,1 hPa 0,0 l/m 0 min 0 min 0,0 UV-I 0 W/m 10,3 km/h (2 Bft)
05.01.2014 20:30 4,7 C 2,8 C 84 % 1009,0 hPa 0,0 l/m 0 min 0 min 0,0 UV-I 0 W/m 5,1 km/h (1 Bft)
05.01.2014 20:32 4,7 C 2,8 C 84 % 1009,0 hPa 0,0 l/m 0 min 0 min 0,0 UV-I 0 W/m 10,3 km/h (2 Bft)
05.01.2014 20:34 4,7 C 2,8 C 84 % 1009,0 hPa 0,0 l/m 0 min 0 min 0,0 UV-I 0 W/m 7,7 km/h (2 Bft)
05.01.2014 20:36 4,7 C 2,8 C 84 % 1009,0 hPa 0,0 l/m 0 min 0 min 0,0 UV-I 0 W/m 10,3 km/h (2 Bft)
05.01.2014 20:38 4,6 C 2,8 C 84 % 1009,0 hPa 0,0 l/m 0 min 0 min 0,0 UV-I 0 W/m 10,3 km/h (2 Bft)
05.01.2014 20:40 4,6 C 2,8 C 84 % 1009,0 hPa 0,0 l/m 0 min 0 min 0,0 UV-I 0 W/m 10,3 km/h (2 Bft)
05.01.2014 20:42 4,6 C 2,8 C 84 % 1008,9 hPa 0,0 l/m 0 min 0 min 0,0 UV-I 0 W/m 7,7 km/h (2 Bft)
05.01.2014 20:44 4,6 C 2,8 C 84 % 1008,9 hPa 0,0 l/m 0 min 0 min 0,0 UV-I 0 W/m 12,9 km/h (3 Bft)
05.01.2014 20:46 4,6 C 2,8 C 84 % 1008,9 hPa 0,0 l/m 0 min 0 min 0,0 UV-I 0 W/m 12,9 km/h (3 Bft)
05.01.2014 20:48 4,6 C 2,8 C 84 % 1008,8 hPa 0,0 l/m 0 min 0 min 0,0 UV-I 0 W/m 7,7 km/h (2 Bft)
05.01.2014 20:50 4,6 C 2,8 C 84 % 1008,9 hPa 0,0 l/m 0 min 0 min 0,0 UV-I 0 W/m 10,3 km/h (2 Bft)
05.01.2014 20:52 4,5 C 2,8 C 84 % 1008,8 hPa 0,0 l/m 0 min 0 min 0,0 UV-I 0 W/m 10,3 km/h (2 Bft)
05.01.2014 20:54 4,5 C 2,8 C 84 % 1008,9 hPa 0,0 l/m 0 min 0 min 0,0 UV-I 0 W/m 5,1 km/h (1 Bft)
05.01.2014 20:56 4,4 C 2,8 C 84 % 1008,9 hPa 0,0 l/m 0 min 0 min 0,0 UV-I 0 W/m 0,0 km/h (0 Bft)
05.01.2014 20:58 4,4 C 2,8 C 84 % 1008,9 hPa 0,0 l/m 0 min 0 min 0,0 UV-I 0 W/m 5,1 km/h (1 Bft)
05.01.2014 21:00 4,3 C 2,2 C 85 % 1009,0 hPa 0,0 l/m 0 min 0 min 0,0 UV-I 0 W/m 7,7 km/h (2 Bft)
05.01.2014 21:02 4,3 C 2,8 C 85 % 1008,9 hPa 0,0 l/m 0 min 0 min 0,0 UV-I 0 W/m 7,7 km/h (2 Bft)
05.01.2014 21:04 4,3 C 2,2 C 85 % 1008,9 hPa 0,0 l/m 0 min 0 min 0,0 UV-I 0 W/m 5,1 km/h (1 Bft)
05.01.2014 21:06 4,2 C 2,2 C 85 % 1008,9 hPa 0,0 l/m 0 min 0 min 0,0 UV-I 0 W/m 7,7 km/h (2 Bft)
05.01.2014 21:08 4,2 C 2,2 C 85 % 1008,9 hPa 0,0 l/m 0 min 0 min 0,0 UV-I 0 W/m 10,3 km/h (2 Bft)
05.01.2014 21:10 4,2 C 2,2 C 85 % 1009,0 hPa 0,0 l/m 0 min 0 min 0,0 UV-I 0 W/m 10,3 km/h (2 Bft)
05.01.2014 21:12 4,2 C 2,2 C 85 % 1008,9 hPa 0,0 l/m 0 min 0 min 0,0 UV-I 0 W/m 7,7 km/h (2 Bft)
05.01.2014 21:14 4,2 C 2,2 C 86 % 1008,9 hPa 0,0 l/m 0 min 0 min 0,0 UV-I 0 W/m 7,7 km/h (2 Bft)
05.01.2014 21:16 4,2 C 2,2 C 86 % 1008,9 hPa 0,0 l/m 0 min 0 min 0,0 UV-I 0 W/m 5,1 km/h (1 Bft)
05.01.2014 21:18 4,2 C 2,2 C 86 % 1008,9 hPa 0,0 l/m 0 min 0 min 0,0 UV-I 0 W/m 12,9 km/h (3 Bft)
05.01.2014 21:20 4,2 C 2,8 C 86 % 1008,9 hPa 0,0 l/m 0 min 0 min 0,0 UV-I 0 W/m 10,3 km/h (2 Bft)
05.01.2014 21:22 4,2 C 2,8 C 86 % 1008,9 hPa 0,0 l/m 0 min 0 min 0,0 UV-I 0 W/m 10,3 km/h (2 Bft)
05.01.2014 21:24 4,2 C 2,8 C 86 % 1008,9 hPa 0,0 l/m 0 min 0 min 0,0 UV-I 0 W/m 10,3 km/h (2 Bft)
05.01.2014 21:26 4,2 C 2,8 C 86 % 1008,9 hPa 0,0 l/m 0 min 0 min 0,0 UV-I 0 W/m 5,1 km/h (1 Bft)
05.01.2014 21:28 4,2 C 2,8 C 86 % 1008,9 hPa 0,0 l/m 0 min 0 min 0,0 UV-I 0 W/m 7,7 km/h (2 Bft)
05.01.2014 21:30 4,2 C 2,8 C 86 % 1008,8 hPa 0,0 l/m 0 min 0 min 0,0 UV-I 0 W/m 10,3 km/h (2 Bft)
05.01.2014 21:32 4,1 C 2,8 C 86 % 1008,8 hPa 0,0 l/m 0 min 0 min 0,0 UV-I 0 W/m 12,9 km/h (3 Bft)
05.01.2014 21:34 4,2 C 2,8 C 86 % 1008,9 hPa 0,0 l/m 0 min 0 min 0,0 UV-I 0 W/m 10,3 km/h (2 Bft)
05.01.2014 21:36 4,2 C 2,8 C 86 % 1008,9 hPa 0,0 l/m 0 min 0 min 0,0 UV-I 0 W/m 10,3 km/h (2 Bft)
05.01.2014 21:38 4,1 C 2,8 C 86 % 1008,9 hPa 0,0 l/m 0 min 0 min 0,0 UV-I 0 W/m 10,3 km/h (2 Bft)
05.01.2014 21:40 4,1 C 2,8 C 86 % 1009,0 hPa 0,0 l/m 0 min 0 min 0,0 UV-I 0 W/m 0,0 km/h (0 Bft)
05.01.2014 21:42 4,1 C 2,2 C 86 % 1009,0 hPa 0,0 l/m 0 min 0 min 0,0 UV-I 0 W/m 10,3 km/h (2 Bft)
05.01.2014 21:44 4,1 C 2,2 C 86 % 1009,0 hPa 0,0 l/m 0 min 0 min 0,0 UV-I 0 W/m 7,7 km/h (2 Bft)
05.01.2014 21:46 4,1 C 2,2 C 86 % 1009,0 hPa 0,0 l/m 0 min 0 min 0,0 UV-I 0 W/m 12,9 km/h (3 Bft)
05.01.2014 21:48 4,1 C 2,2 C 86 % 1009,0 hPa 0,0 l/m 0 min 0 min 0,0 UV-I 0 W/m 12,9 km/h (3 Bft)
05.01.2014 21:50 4,1 C 2,2 C 86 % 1009,1 hPa 0,0 l/m 0 min 0 min 0,0 UV-I 0 W/m 10,3 km/h (2 Bft)
05.01.2014 21:52 4,1 C 2,2 C 86 % 1009,1 hPa 0,0 l/m 0 min 0 min 0,0 UV-I 0 W/m 5,1 km/h (1 Bft)
05.01.2014 21:54 4,1 C 2,2 C 86 % 1009,0 hPa 0,0 l/m 0 min 0 min 0,0 UV-I 0 W/m 2,6 km/h (1 Bft)
05.01.2014 21:56 4,0 C 2,2 C 86 % 1009,0 hPa 0,0 l/m 0 min 0 min 0,0 UV-I 0 W/m 12,9 km/h (3 Bft)
05.01.2014 21:58 4,0 C 2,2 C 87 % 1008,9 hPa 0,0 l/m 0 min 0 min 0,0 UV-I 0 W/m 10,3 km/h (2 Bft)
05.01.2014 22:00 4,0 C 2,2 C 87 % 1008,9 hPa 0,0 l/m 0 min 0 min 0,0 UV-I 0 W/m 7,7 km/h (2 Bft)
05.01.2014 22:02 3,9 C 2,2 C 87 % 1009,0 hPa 0,0 l/m 0 min 0 min 0,0 UV-I 0 W/m 7,7 km/h (2 Bft)
05.01.2014 22:04 3,9 C 2,2 C 87 % 1008,9 hPa 0,0 l/m 0 min 0 min 0,0 UV-I 0 W/m 10,3 km/h (2 Bft)
05.01.2014 22:06 3,9 C 2,2 C 87 % 1008,9 hPa 0,0 l/m 0 min 0 min 0,0 UV-I 0 W/m 7,7 km/h (2 Bft)
05.01.2014 22:08 3,9 C 2,2 C 87 % 1008,9 hPa 0,0 l/m 0 min 0 min 0,0 UV-I 0 W/m 7,7 km/h (2 Bft)
05.01.2014 22:10 3,9 C 2,2 C 87 % 1008,9 hPa 0,0 l/m 0 min 0 min 0,0 UV-I 0 W/m 12,9 km/h (3 Bft)
05.01.2014 22:12 3,9 C 2,2 C 87 % 1008,9 hPa 0,0 l/m 0 min 0 min 0,0 UV-I 0 W/m 10,3 km/h (2 Bft)
05.01.2014 22:14 3,9 C 2,2 C 87 % 1008,9 hPa 0,0 l/m 0 min 0 min 0,0 UV-I 0 W/m 0,0 km/h (0 Bft)
05.01.2014 22:16 3,9 C 2,2 C 87 % 1008,9 hPa 0,0 l/m 0 min 0 min 0,0 UV-I 0 W/m 10,3 km/h (2 Bft)
05.01.2014 22:18 3,9 C 2,2 C 87 % 1008,9 hPa 0,0 l/m 0 min 0 min 0,0 UV-I 0 W/m 12,9 km/h (3 Bft)
05.01.2014 22:20 3,9 C 2,2 C 87 % 1008,8 hPa 0,0 l/m 0 min 0 min 0,0 UV-I 0 W/m 15,4 km/h (3 Bft)
05.01.2014 22:22 3,9 C 2,2 C 87 % 1008,8 hPa 0,0 l/m 0 min 0 min 0,0 UV-I 0 W/m 10,3 km/h (2 Bft)
05.01.2014 22:24 3,9 C 2,2 C 87 % 1008,7 hPa 0,0 l/m 0 min 0 min 0,0 UV-I 0 W/m 10,3 km/h (2 Bft)
05.01.2014 22:26 3,9 C 2,2 C 87 % 1008,7 hPa 0,0 l/m 0 min 0 min 0,0 UV-I 0 W/m 7,7 km/h (2 Bft)
05.01.2014 22:28 3,9 C 2,2 C 87 % 1008,7 hPa 0,0 l/m 0 min 0 min 0,0 UV-I 0 W/m 7,7 km/h (2 Bft)
05.01.2014 22:30 3,9 C 2,2 C 88 % 1008,7 hPa 0,0 l/m 0 min 0 min 0,0 UV-I 0 W/m 18,0 km/h (3 Bft)
05.01.2014 22:32 3,9 C 2,2 C 88 % 1008,7 hPa 0,0 l/m 0 min 0 min 0,0 UV-I 0 W/m 10,3 km/h (2 Bft)
05.01.2014 22:34 3,9 C 2,2 C 88 % 1008,6 hPa 0,0 l/m 0 min 0 min 0,0 UV-I 0 W/m 10,3 km/h (2 Bft)
05.01.2014 22:36 3,9 C 2,2 C 88 % 1008,6 hPa 0,0 l/m 0 min 0 min 0,0 UV-I 0 W/m 10,3 km/h (2 Bft)
05.01.2014 22:38 3,9 C 2,2 C 88 % 1008,6 hPa 0,0 l/m 0 min 0 min 0,0 UV-I 0 W/m 2,6 km/h (1 Bft)
05.01.2014 22:40 3,9 C 2,2 C 88 % 1008,6 hPa 0,0 l/m 0 min 0 min 0,0 UV-I 0 W/m 7,7 km/h (2 Bft)
05.01.2014 22:42 3,8 C 2,2 C 88 % 1008,6 hPa 0,0 l/m 0 min 0 min 0,0 UV-I 0 W/m 10,3 km/h (2 Bft)
05.01.2014 22:44 3,8 C 2,2 C 88 % 1008,5 hPa 0,0 l/m 0 min 0 min 0,0 UV-I 0 W/m 7,7 km/h (2 Bft)
05.01.2014 22:46 3,8 C 2,2 C 88 % 1008,4 hPa 0,0 l/m 0 min 0 min 0,0 UV-I 0 W/m 12,9 km/h (3 Bft)
05.01.2014 22:48 3,8 C 2,2 C 88 % 1008,4 hPa 0,0 l/m 0 min 0 min 0,0 UV-I 0 W/m 12,9 km/h (3 Bft)
05.01.2014 22:50 3,8 C 2,2 C 88 % 1008,4 hPa 0,0 l/m 0 min 0 min 0,0 UV-I 0 W/m 10,3 km/h (2 Bft)
05.01.2014 22:52 3,8 C 2,2 C 88 % 1008,3 hPa 0,0 l/m 0 min 0 min 0,0 UV-I 0 W/m 12,9 km/h (3 Bft)
05.01.2014 22:54 3,8 C 2,2 C 88 % 1008,3 hPa 0,0 l/m 0 min 0 min 0,0 UV-I 0 W/m 5,1 km/h (1 Bft)
05.01.2014 22:56 3,8 C 2,2 C 88 % 1008,2 hPa 0,0 l/m 0 min 0 min 0,0 UV-I 0 W/m 12,9 km/h (3 Bft)
05.01.2014 22:58 3,7 C 2,2 C 88 % 1008,2 hPa 0,0 l/m 0 min 0 min 0,0 UV-I 0 W/m 12,9 km/h (3 Bft)
05.01.2014 23:00 3,7 C 2,2 C 88 % 1008,2 hPa 0,0 l/m 0 min 0 min 0,0 UV-I 0 W/m 10,3 km/h (2 Bft)
05.01.2014 23:02 3,7 C 2,2 C 88 % 1008,1 hPa 0,0 l/m 0 min 0 min 0,0 UV-I 0 W/m 12,9 km/h (3 Bft)
05.01.2014 23:04 3,7 C 2,2 C 88 % 1008,1 hPa 0,0 l/m 0 min 0 min 0,0 UV-I 0 W/m 10,3 km/h (2 Bft)
05.01.2014 23:06 3,7 C 2,2 C 88 % 1008,1 hPa 0,0 l/m 0 min 0 min 0,0 UV-I 0 W/m 12,9 km/h (3 Bft)
05.01.2014 23:08 3,7 C 2,2 C 88 % 1008,0 hPa 0,0 l/m 0 min 0 min 0,0 UV-I 0 W/m 12,9 km/h (3 Bft)
05.01.2014 23:10 3,7 C 2,2 C 88 % 1008,0 hPa 0,0 l/m 0 min 0 min 0,0 UV-I 0 W/m 15,4 km/h (3 Bft)
05.01.2014 23:12 3,8 C 2,2 C 88 % 1007,9 hPa 0,0 l/m 0 min 0 min 0,0 UV-I 0 W/m 18,0 km/h (3 Bft)
05.01.2014 23:14 3,8 C 2,2 C 88 % 1007,9 hPa 0,0 l/m 0 min 0 min 0,0 UV-I 0 W/m 12,9 km/h (3 Bft)
05.01.2014 23:16 3,8 C 2,2 C 88 % 1007,9 hPa 0,0 l/m 0 min 0 min 0,0 UV-I 0 W/m 15,4 km/h (3 Bft)
05.01.2014 23:18 3,8 C 2,2 C 88 % 1007,8 hPa 0,0 l/m 0 min 0 min 0,0 UV-I 0 W/m 12,9 km/h (3 Bft)
05.01.2014 23:20 3,8 C 2,2 C 88 % 1007,8 hPa 0,0 l/m 0 min 0 min 0,0 UV-I 0 W/m 12,9 km/h (3 Bft)
05.01.2014 23:22 3,8 C 2,2 C 88 % 1007,8 hPa 0,0 l/m 0 min 0 min 0,0 UV-I 0 W/m 18,0 km/h (3 Bft)
05.01.2014 23:24 3,8 C 2,2 C 88 % 1007,7 hPa 0,0 l/m 0 min 0 min 0,0 UV-I 0 W/m 10,3 km/h (2 Bft)
05.01.2014 23:26 3,8 C 2,2 C 88 % 1007,7 hPa 0,0 l/m 0 min 0 min 0,0 UV-I 0 W/m 15,4 km/h (3 Bft)
05.01.2014 23:28 3,8 C 2,2 C 88 % 1007,5 hPa 0,0 l/m 0 min 0 min 0,0 UV-I 0 W/m 20,6 km/h (4 Bft)
05.01.2014 23:30 3,8 C 2,2 C 88 % 1007,7 hPa 0,0 l/m 0 min 0 min 0,0 UV-I 0 W/m 15,4 km/h (3 Bft)
05.01.2014 23:32 3,9 C 2,2 C 88 % 1007,7 hPa 0,0 l/m 0 min 0 min 0,0 UV-I 0 W/m 15,4 km/h (3 Bft)
05.01.2014 23:34 3,9 C 2,2 C 88 % 1007,7 hPa 0,0 l/m 0 min 0 min 0,0 UV-I 0 W/m 15,4 km/h (3 Bft)
05.01.2014 23:36 3,9 C 2,2 C 88 % 1007,5 hPa 0,0 l/m 0 min 0 min 0,0 UV-I 0 W/m 18,0 km/h (3 Bft)
05.01.2014 23:38 3,9 C 2,2 C 88 % 1007,5 hPa 0,0 l/m 0 min 0 min 0,0 UV-I 0 W/m 10,3 km/h (2 Bft)
05.01.2014 23:40 3,9 C 2,2 C 88 % 1007,3 hPa 0,0 l/m 0 min 0 min 0,0 UV-I 0 W/m 18,0 km/h (3 Bft)
05.01.2014 23:42 3,9 C 2,2 C 88 % 1007,2 hPa 0,0 l/m 0 min 0 min 0,0 UV-I 0 W/m 20,6 km/h (4 Bft)
05.01.2014 23:44 3,9 C 2,2 C 88 % 1007,3 hPa 0,0 l/m 0 min 0 min 0,0 UV-I 0 W/m 10,3 km/h (2 Bft)
05.01.2014 23:46 3,9 C 2,2 C 88 % 1007,3 hPa 0,0 l/m 0 min 0 min 0,0 UV-I 0 W/m 15,4 km/h (3 Bft)
05.01.2014 23:48 4,0 C 2,2 C 88 % 1007,2 hPa 0,0 l/m 0 min 0 min 0,0 UV-I 0 W/m 12,9 km/h (3 Bft)
05.01.2014 23:50 4,0 C 2,2 C 87 % 1007,1 hPa 0,0 l/m 0 min 0 min 0,0 UV-I 0 W/m 18,0 km/h (3 Bft)
05.01.2014 23:52 4,0 C 2,2 C 87 % 1007,1 hPa 0,0 l/m 0 min 0 min 0,0 UV-I 0 W/m 12,9 km/h (3 Bft)
05.01.2014 23:54 4,0 C 2,2 C 87 % 1007,1 hPa 0,0 l/m 0 min 0 min 0,0 UV-I 0 W/m 12,9 km/h (3 Bft)
05.01.2014 23:56 4,0 C 2,2 C 87 % 1007,1 hPa 0,0 l/m 0 min 0 min 0,0 UV-I 0 W/m 12,9 km/h (3 Bft)
05.01.2014 23:58 4,1 C 2,2 C 87 % 1007,1 hPa 0,0 l/m 0 min 0 min 0,0 UV-I 0 W/m 10,3 km/h (2 Bft)
_ Min-Zeit 22:56 21:00 14:12 00:00 - - - - - 00:02
Minimum _ 3,7 C 2,2 C 78 % 995,8 hPa - - - - - 0,0 km/h (0 Bft)
_ Max-Zeit 20:12 14:04 00:36 16:56 01:52 10:08 01:28 00:00 12:50 13:14
Maximum _ 9,6 C 6,7 C 96 % 1010,5 hPa 0,2 l/m 2 min 2 min 0,0 UV-I 232 W/m 30,9 km/h
S (5 Bft)
Durchschnitt _ 5,9 C 4,3 C 89 % 1005,2 hPa #0,8 l/m #4:48 h #2:34 h 0,0 UV-I 128 W/m 9,1 km/h (2 Bft)
© 2014 W. Hausmann